Observation data for Vigo Park on 10/17/2019      Previous  Date       Current Mesonet Observations  Soil Data  Daily Summary Page  Observations in Plain Language
KVP1 170500Z 22009KT 07/01 A301 RMK A01 T00740008  RH  063%=      5-min Rain = 0
KVP1 170501Z 22009KT 07/01 A301 RMK A01 T00740008  RH  063%=      5-min Rain = 0
KVP1 170502Z 22009KT 07/01 A301 RMK A01 T00730008  RH  063%=      5-min Rain = 0
KVP1 170503Z 22009KT 07/01 A301 RMK A01 T00720008  RH  064%=      5-min Rain = 0
KVP1 170504Z 22010KT 07/01 A301 RMK A01 T00720008  RH  064%=      5-min Rain = 0
KVP1 170505Z 22009KT 07/01 A301 RMK A01 T00720009  RH  064%=      5-min Rain = 0
KVP1 170506Z 22009KT 07/01 A301 RMK A01 T00710009  RH  064%=      5-min Rain = 0
KVP1 170507Z 22009KT 07/01 A301 RMK A01 T00710009  RH  064%=      5-min Rain = 0
KVP1 170508Z 22009KT 07/01 A301 RMK A01 T00720009  RH  064%=      5-min Rain = 0
KVP1 170509Z 22009KT 07/01 A301 RMK A01 T00710008  RH  064%=      5-min Rain = 0
KVP1 170510Z 23009KT 07/01 A301 RMK A01 T00720009  RH  064%=      5-min Rain = 0
KVP1 170511Z 22010KT 07/01 A301 RMK A01 T00720009  RH  064%=      5-min Rain = 0
KVP1 170512Z 22010KT 07/01 A301 RMK A01 T00720009  RH  064%=      5-min Rain = 0
KVP1 170513Z 22010KT 07/01 A301 RMK A01 T00720009  RH  064%=      5-min Rain = 0
KVP1 170514Z 22010KT 07/01 A301 RMK A01 T00720009  RH  064%=      5-min Rain = 0
KVP1 170515Z 22010KT 07/01 A301 RMK A01 T00730009  RH  064%=      5-min Rain = 0
KVP1 170516Z 22010KT 07/01 A301 RMK A01 T00730009  RH  064%=      5-min Rain = 0
KVP1 170517Z 22010KT 07/01 A301 RMK A01 T00730009  RH  064%=      5-min Rain = 0
KVP1 170518Z 22009KT 07/01 A301 RMK A01 T00730009  RH  064%=      5-min Rain = 0
KVP1 170519Z 22010KT 07/01 A301 RMK A01 T00730009  RH  064%=      5-min Rain = 0
KVP1 170520Z 22009KT 07/01 A301 RMK A01 T00730010  RH  064%=      5-min Rain = 0
KVP1 170521Z 22010KT 07/01 A301 RMK A01 T00720010  RH  065%=      5-min Rain = 0
KVP1 170522Z 22010KT 07/01 A301 RMK A01 T00710010  RH  065%=      5-min Rain = 0
KVP1 170523Z 22010KT 07/01 A301 RMK A01 T00710009  RH  065%=      5-min Rain = 0
KVP1 170524Z 22010KT 07/01 A301 RMK A01 T00710009  RH  065%=      5-min Rain = 0
KVP1 170525Z 22010KT 07/01 A301 RMK A01 T00720009  RH  064%=      5-min Rain = 0
KVP1 170526Z 22010KT 07/01 A301 RMK A01 T00720009  RH  064%=      5-min Rain = 0
KVP1 170527Z 22010KT 07/01 A301 RMK A01 T00720009  RH  064%=      5-min Rain = 0
KVP1 170528Z 22010KT 07/01 A301 RMK A01 T00720009  RH  064%=      5-min Rain = 0
KVP1 170529Z 22010KT 07/01 A301 RMK A01 T00720009  RH  064%=      5-min Rain = 0
KVP1 170530Z 22009KT 07/01 A301 RMK A01 T00710009  RH  065%=      5-min Rain = 0
KVP1 170531Z 22009KT 07/01 A301 RMK A01 T00700009  RH  065%=      5-min Rain = 0
KVP1 170532Z 22010KT 07/01 A301 RMK A01 T00690009  RH  065%=      5-min Rain = 0
KVP1 170533Z 22009KT 07/01 A301 RMK A01 T00680009  RH  066%=      5-min Rain = 0
KVP1 170534Z 22010KT 07/01 A301 RMK A01 T00670009  RH  067%=      5-min Rain = 0
KVP1 170535Z 22010KT 07/01 A301 RMK A01 T00670009  RH  067%=      5-min Rain = 0
KVP1 170536Z 22010KT 07/01 A301 RMK A01 T00660009  RH  067%=      5-min Rain = 0
KVP1 170537Z 22010KT 07/01 A301 RMK A01 T00650009  RH  067%=      5-min Rain = 0
KVP1 170538Z 22010KT 07/01 A3009 RMK A01 T00650010  RH  068%=      5-min Rain = 0
KVP1 170539Z 22010KT 06/01 A3009 RMK A01 T00640009  RH  068%=      5-min Rain = 0
KVP1 170540Z 22010KT 07/01 A3009 RMK A01 T00650009  RH  068%=      5-min Rain = 0
KVP1 170541Z 22009KT 07/01 A3009 RMK A01 T00650010  RH  068%=      5-min Rain = 0
KVP1 170542Z 22010KT 06/01 A3009 RMK A01 T00640010  RH  068%=      5-min Rain = 0
KVP1 170543Z 22010KT 06/01 A3009 RMK A01 T00640009  RH  068%=      5-min Rain = 0
KVP1 170544Z 22010KT 06/01 A3009 RMK A01 T00640009  RH  068%=      5-min Rain = 0
KVP1 170545Z 22010KT 07/01 A3009 RMK A01 T00650009  RH  068%=      5-min Rain = 0
KVP1 170546Z 22010KT 07/01 A3009 RMK A01 T00650009  RH  068%=      5-min Rain = 0
KVP1 170547Z 22009KT 07/01 A3009 RMK A01 T00650009  RH  067%=      5-min Rain = 0
KVP1 170548Z 22010KT 07/01 A3009 RMK A01 T00650009  RH  067%=      5-min Rain = 0
KVP1 170549Z 22010KT 07/01 A3009 RMK A01 T00660009  RH  067%=      5-min Rain = 0
KVP1 170550Z 22010KT 07/01 A3009 RMK A01 T00660009  RH  067%=      5-min Rain = 0
KVP1 170551Z 22010KT 07/01 A3009 RMK A01 T00660009  RH  067%=      5-min Rain = 0
KVP1 170552Z 22010KT 07/01 A3009 RMK A01 T00660009  RH  067%=      5-min Rain = 0
KVP1 170553Z 22010KT 07/01 A3009 RMK A01 T00660009  RH  067%=      5-min Rain = 0
KVP1 170554Z 22010KT 07/01 A3009 RMK A01 T00660009  RH  067%=      5-min Rain = 0
KVP1 170555Z 22010KT 07/01 A3009 RMK A01 T00660009  RH  067%=      5-min Rain = 0
KVP1 170556Z 22010KT 07/01 A3009 RMK A01 T00660009  RH  067%=      5-min Rain = 0
KVP1 170557Z 22010KT 07/01 A3009 RMK A01 T00670009  RH  067%=      5-min Rain = 0
KVP1 170558Z 22010KT 07/01 A3009 RMK A01 T00670009  RH  067%=      5-min Rain = 0
KVP1 170559Z 22010KT 07/01 A3009 RMK A01 T00670009  RH  066%=      5-min Rain = 0
KVP1 170600Z 23010KT 07/01 A3009 RMK A01 T00670009  RH  066%=      5-min Rain = 0
KVP1 170601Z 23009KT 07/01 A3009 RMK A01 T00670009  RH  066%=      5-min Rain = 0
KVP1 170602Z 23010KT 07/01 A3009 RMK A01 T00670009  RH  066%=      5-min Rain = 0
KVP1 170603Z 23009KT 07/01 A3009 RMK A01 T00670009  RH  067%=      5-min Rain = 0
KVP1 170604Z 23010KT 07/01 A3009 RMK A01 T00670009  RH  067%=      5-min Rain = 0
KVP1 170605Z 23010KT 07/01 A3009 RMK A01 T00660009  RH  067%=      5-min Rain = 0
KVP1 170606Z 23010KT 07/01 A3009 RMK A01 T00670009  RH  067%=      5-min Rain = 0
KVP1 170607Z 23009KT 07/01 A3009 RMK A01 T00660009  RH  067%=      5-min Rain = 0
KVP1 170608Z 22009KT 07/01 A3009 RMK A01 T00660009  RH  067%=      5-min Rain = 0
KVP1 170609Z 22010KT 07/01 A3009 RMK A01 T00660009  RH  067%=      5-min Rain = 0
KVP1 170610Z 23009KT 07/01 A3009 RMK A01 T00650009  RH  067%=      5-min Rain = 0
KVP1 170611Z 23009KT 07/01 A3009 RMK A01 T00650009  RH  067%=      5-min Rain = 0
KVP1 170612Z 23009KT 06/01 A3009 RMK A01 T00640009  RH  068%=      5-min Rain = 0
KVP1 170613Z 23009KT 06/01 A3009 RMK A01 T00630009  RH  068%=      5-min Rain = 0
KVP1 170614Z 23009KT 06/01 A3009 RMK A01 T00630009  RH  068%=      5-min Rain = 0
KVP1 170615Z 23009KT 06/01 A3009 RMK A01 T00620009  RH  069%=      5-min Rain = 0
KVP1 170616Z 23009KT 06/01 A3009 RMK A01 T00620009  RH  069%=      5-min Rain = 0
KVP1 170617Z 22009KT 06/01 A3009 RMK A01 T00610008  RH  069%=      5-min Rain = 0
KVP1 170618Z 23009KT 06/01 A3009 RMK A01 T00600009  RH  069%=      5-min Rain = 0
KVP1 170619Z 23009KT 06/01 A3009 RMK A01 T00590008  RH  070%=      5-min Rain = 0
KVP1 170620Z 23009KT 06/01 A3009 RMK A01 T00580008  RH  070%=      5-min Rain = 0
KVP1 170621Z 23009KT 06/01 A3009 RMK A01 T00580008  RH  070%=      5-min Rain = 0
KVP1 170622Z 23009KT 06/01 A3009 RMK A01 T00580008  RH  070%=      5-min Rain = 0
KVP1 170623Z 23010KT 06/01 A3009 RMK A01 T00580008  RH  070%=      5-min Rain = 0
KVP1 170624Z 23010KT 06/01 A3009 RMK A01 T00590007  RH  070%=      5-min Rain = 0
KVP1 170625Z 23010KT 06/01 A3009 RMK A01 T00600008  RH  069%=      5-min Rain = 0
KVP1 170626Z 23010KT 06/01 A3009 RMK A01 T00620008  RH  068%=      5-min Rain = 0
KVP1 170627Z 23010KT 06/01 A3008 RMK A01 T00640007  RH  067%=      5-min Rain = 0
KVP1 170628Z 23010KT 07/01 A3008 RMK A01 T00670008  RH  066%=      5-min Rain = 0
KVP1 170629Z 23010KT 07/01 A3008 RMK A01 T00690007  RH  065%=      5-min Rain = 0
KVP1 170630Z 23010KT 07/01 A3008 RMK A01 T00710007  RH  064%=      5-min Rain = 0
KVP1 170631Z 23010KT 07/01 A3008 RMK A01 T00720007  RH  063%=      5-min Rain = 0
KVP1 170632Z 23010KT 07/01 A3008 RMK A01 T00730007  RH  063%=      5-min Rain = 0
KVP1 170633Z 23011KT 08/01 A3008 RMK A01 T00750007  RH  062%=      5-min Rain = 0
KVP1 170634Z 23010KT 08/01 A3008 RMK A01 T00760008  RH  062%=      5-min Rain = 0
KVP1 170635Z 23010KT 08/01 A3008 RMK A01 T00770008  RH  061%=      5-min Rain = 0
KVP1 170636Z 23011KT 08/01 A3008 RMK A01 T00780007  RH  061%=      5-min Rain = 0
KVP1 170637Z 24010KT 08/01 A3008 RMK A01 T00790008  RH  061%=      5-min Rain = 0
KVP1 170638Z 24010KT 08/01 A3008 RMK A01 T00790007  RH  061%=      5-min Rain = 0
KVP1 170639Z 23010KT 08/01 A3008 RMK A01 T00790007  RH  060%=      5-min Rain = 0
KVP1 170640Z 24010KT 08/01 A3008 RMK A01 T00810007  RH  060%=      5-min Rain = 0
KVP1 170641Z 24010KT 08/01 A3008 RMK A01 T00800007  RH  060%=      5-min Rain = 0
KVP1 170642Z 24010KT 08/01 A3008 RMK A01 T00800006  RH  060%=      5-min Rain = 0
KVP1 170643Z 24010KT 08/01 A3008 RMK A01 T00810007  RH  060%=      5-min Rain = 0
KVP1 170644Z 24011KT 08/01 A3008 RMK A01 T00810007  RH  060%=      5-min Rain = 0
KVP1 170645Z 24010KT 08/01 A3008 RMK A01 T00800007  RH  060%=      5-min Rain = 0
KVP1 170646Z 24010KT 08/01 A3008 RMK A01 T00800007  RH  060%=      5-min Rain = 0
KVP1 170647Z 24010KT 08/01 A3008 RMK A01 T00790007  RH  060%=      5-min Rain = 0
KVP1 170648Z 24010KT 08/01 A3009 RMK A01 T00780008  RH  061%=      5-min Rain = 0
KVP1 170649Z 24010KT 08/01 A3009 RMK A01 T00770008  RH  061%=      5-min Rain = 0
KVP1 170650Z 24010KT 08/01 A3009 RMK A01 T00770008  RH  061%=      5-min Rain = 0
KVP1 170651Z 24010KT 08/01 A3009 RMK A01 T00770008  RH  062%=      5-min Rain = 0
KVP1 170652Z 24010KT 08/01 A3009 RMK A01 T00760007  RH  062%=      5-min Rain = 0
KVP1 170653Z 24011KT 08/01 A3008 RMK A01 T00760007  RH  062%=      5-min Rain = 0
KVP1 170654Z 24011KT 08/01 A3008 RMK A01 T00760007  RH  062%=      5-min Rain = 0
KVP1 170655Z 24010KT 08/01 A3008 RMK A01 T00760007  RH  062%=      5-min Rain = 0
KVP1 170656Z 23010KT 08/01 A3008 RMK A01 T00760007  RH  062%=      5-min Rain = 0
KVP1 170657Z 23010KT 08/01 A3008 RMK A01 T00750007  RH  062%=      5-min Rain = 0
KVP1 170658Z 24010KT 08/01 A3009 RMK A01 T00750007  RH  062%=      5-min Rain = 0
KVP1 170659Z 24010KT 08/01 A3009 RMK A01 T00750007  RH  062%=      5-min Rain = 0
KVP1 170700Z 24009KT 07/01 A3009 RMK A01 T00740007  RH  062%=      5-min Rain = 0
KVP1 170701Z 23010KT 07/01 A3008 RMK A01 T00740007  RH  063%=      5-min Rain = 0
KVP1 170702Z 23010KT 07/01 A3008 RMK A01 T00730007  RH  063%=      5-min Rain = 0
KVP1 170703Z 23010KT 07/01 A3008 RMK A01 T00730007  RH  063%=      5-min Rain = 0
KVP1 170704Z 23011KT 07/01 A3008 RMK A01 T00730007  RH  063%=      5-min Rain = 0
KVP1 170705Z 23010KT 07/01 A3008 RMK A01 T00730007  RH  063%=      5-min Rain = 0
KVP1 170706Z 23010KT 07/01 A3008 RMK A01 T00730007  RH  063%=      5-min Rain = 0
KVP1 170707Z 23009KT 07/01 A3008 RMK A01 T00730007  RH  063%=      5-min Rain = 0
KVP1 170708Z 23010KT 07/01 A3008 RMK A01 T00730007  RH  063%=      5-min Rain = 0
KVP1 170709Z 23010KT 07/01 A3008 RMK A01 T00730007  RH  063%=      5-min Rain = 0
KVP1 170710Z 23010KT 07/01 A3008 RMK A01 T00740008  RH  063%=      5-min Rain = 0
KVP1 170711Z 23011KT 07/01 A3008 RMK A01 T00740007  RH  063%=      5-min Rain = 0
KVP1 170712Z 23010KT 07/01 A3008 RMK A01 T00740007  RH  062%=      5-min Rain = 0
KVP1 170713Z 24010KT 08/01 A3008 RMK A01 T00750007  RH  062%=      5-min Rain = 0
KVP1 170714Z 24010KT 08/01 A3008 RMK A01 T00760007  RH  062%=      5-min Rain = 0
KVP1 170715Z 24010KT 08/01 A3008 RMK A01 T00760007  RH  061%=      5-min Rain = 0
KVP1 170716Z 24010KT 08/01 A3009 RMK A01 T00770007  RH  061%=      5-min Rain = 0
KVP1 170717Z 24009KT 08/01 A3009 RMK A01 T00770006  RH  061%=      5-min Rain = 0
KVP1 170718Z 24010KT 08/01 A3009 RMK A01 T00770006  RH  061%=      5-min Rain = 0
KVP1 170719Z 24009KT 08/01 A3009 RMK A01 T00770006  RH  061%=      5-min Rain = 0
KVP1 170720Z 24009KT 08/01 A3009 RMK A01 T00770006  RH  061%=      5-min Rain = 0
KVP1 170721Z 24009KT 08/01 A3009 RMK A01 T00770006  RH  061%=      5-min Rain = 0
KVP1 170722Z 24009KT 08/01 A3008 RMK A01 T00770006  RH  061%=      5-min Rain = 0
KVP1 170723Z 24010KT 08/01 A3008 RMK A01 T00770006  RH  061%=      5-min Rain = 0
KVP1 170724Z 24010KT 08/01 A3008 RMK A01 T00770006  RH  061%=      5-min Rain = 0
KVP1 170725Z 24010KT 08/01 A3008 RMK A01 T00770006  RH  061%=      5-min Rain = 0
KVP1 170726Z 23009KT 08/01 A3008 RMK A01 T00770006  RH  061%=      5-min Rain = 0
KVP1 170727Z 23009KT 08/01 A3008 RMK A01 T00770006  RH  061%=      5-min Rain = 0
KVP1 170728Z 23010KT 08/01 A3008 RMK A01 T00770006  RH  061%=      5-min Rain = 0
KVP1 170729Z 23010KT 08/01 A3008 RMK A01 T00760006  RH  061%=      5-min Rain = 0
KVP1 170730Z 23009KT 08/01 A3008 RMK A01 T00760006  RH  061%=      5-min Rain = 0
KVP1 170731Z 23009KT 08/01 A3008 RMK A01 T00750006  RH  061%=      5-min Rain = 0
KVP1 170732Z 24010KT 08/01 A3008 RMK A01 T00750006  RH  061%=      5-min Rain = 0
KVP1 170733Z 24009KT 08/01 A3008 RMK A01 T00750006  RH  061%=      5-min Rain = 0
KVP1 170734Z 24009KT 08/01 A3008 RMK A01 T00750006  RH  062%=      5-min Rain = 0
KVP1 170735Z 24009KT 07/01 A3008 RMK A01 T00740006  RH  062%=      5-min Rain = 0
KVP1 170736Z 24009KT 07/01 A3008 RMK A01 T00740005  RH  062%=      5-min Rain = 0
KVP1 170737Z 24009KT 07/01 A3008 RMK A01 T00740005  RH  062%=      5-min Rain = 0
KVP1 170738Z 24010KT 07/01 A3008 RMK A01 T00740005  RH  061%=      5-min Rain = 0
KVP1 170739Z 24009KT 08/01 A3008 RMK A01 T00750005  RH  061%=      5-min Rain = 0
KVP1 170740Z 24010KT 08/01 A3008 RMK A01 T00750005  RH  061%=      5-min Rain = 0
KVP1 170741Z 24010KT 08/00 A3008 RMK A01 T00750004  RH  061%=      5-min Rain = 0
KVP1 170742Z 24009KT 08/01 A3008 RMK A01 T00760005  RH  061%=      5-min Rain = 0
KVP1 170743Z 23009KT 08/01 A3008 RMK A01 T00760005  RH  061%=      5-min Rain = 0
KVP1 170744Z 23009KT 08/01 A3008 RMK A01 T00760005  RH  061%=      5-min Rain = 0
KVP1 170745Z 23009KT 08/01 A3008 RMK A01 T00750005  RH  061%=      5-min Rain = 0
KVP1 170746Z 23009KT 08/01 A3008 RMK A01 T00750005  RH  061%=      5-min Rain = 0
KVP1 170747Z 23009KT 07/01 A3008 RMK A01 T00740005  RH  062%=      5-min Rain = 0
KVP1 170748Z 23009KT 07/01 A3008 RMK A01 T00740005  RH  062%=      5-min Rain = 0
KVP1 170749Z 23008KT 07/01 A3008 RMK A01 T00730006  RH  062%=      5-min Rain = 0
KVP1 170750Z 23009KT 07/01 A3008 RMK A01 T00720006  RH  063%=      5-min Rain = 0
KVP1 170751Z 23009KT 07/01 A3008 RMK A01 T00720006  RH  063%=      5-min Rain = 0
KVP1 170752Z 23009KT 07/01 A3008 RMK A01 T00710006  RH  063%=      5-min Rain = 0
KVP1 170753Z 23009KT 07/01 A3008 RMK A01 T00710006  RH  063%=      5-min Rain = 0
KVP1 170754Z 23009KT 07/01 A3008 RMK A01 T00710006  RH  063%=      5-min Rain = 0
KVP1 170755Z 23009KT 07/01 A3008 RMK A01 T00710005  RH  063%=      5-min Rain = 0
KVP1 170756Z 23010KT 07/01 A3008 RMK A01 T00710005  RH  063%=      5-min Rain = 0
KVP1 170757Z 22010KT 07/01 A3008 RMK A01 T00720005  RH  062%=      5-min Rain = 0
KVP1 170758Z 23010KT 07/00 A3008 RMK A01 T00730004  RH  062%=      5-min Rain = 0
KVP1 170759Z 22011KT 08/01 A3008 RMK A01 T00750005  RH  061%=      5-min Rain = 0
KVP1 170800Z 22011KT 08/00 A3008 RMK A01 T00760004  RH  060%=      5-min Rain = 0
KVP1 170801Z 22011KT 08/00 A3008 RMK A01 T00780004  RH  060%=      5-min Rain = 0
KVP1 170802Z 23011KT 08/00 A3008 RMK A01 T00790003  RH  059%=      5-min Rain = 0
KVP1 170803Z 23011KT 08/00 A3008 RMK A01 T00790003  RH  059%=      5-min Rain = 0
KVP1 170804Z 23011KT 08/00 A3008 RMK A01 T00800003  RH  058%=      5-min Rain = 0
KVP1 170805Z 23012KT 08/00 A3008 RMK A01 T00810003  RH  058%=      5-min Rain = 0
KVP1 170806Z 24012KT 08/00 A3008 RMK A01 T00820002  RH  057%=      5-min Rain = 0
KVP1 170807Z 23011KT 08/00 A3008 RMK A01 T00840003  RH  057%=      5-min Rain = 0
KVP1 170808Z 24010KT 08/00 A3008 RMK A01 T00840003  RH  057%=      5-min Rain = 0
KVP1 170809Z 23011KT 08/00 A3008 RMK A01 T00840003  RH  057%=      5-min Rain = 0
KVP1 170810Z 24011KT 08/00 A3008 RMK A01 T00830002  RH  057%=      5-min Rain = 0
KVP1 170811Z 24011KT 08/00 A3008 RMK A01 T00840002  RH  056%=      5-min Rain = 0
KVP1 170812Z 24011KT 09/00 A3008 RMK A01 T00850002  RH  056%=      5-min Rain = 0
KVP1 170813Z 24011KT 09/00 A3008 RMK A01 T00850002  RH  056%=      5-min Rain = 0
KVP1 170814Z 24011KT 09/00 A3008 RMK A01 T00850002  RH  056%=      5-min Rain = 0
KVP1 170815Z 24011KT 09/00 A3008 RMK A01 T00850002  RH  056%=      5-min Rain = 0
KVP1 170816Z 24011KT 09/00 A3008 RMK A01 T00850002  RH  056%=      5-min Rain = 0
KVP1 170817Z 23011KT 08/00 A3007 RMK A01 T00840003  RH  056%=      5-min Rain = 0
KVP1 170818Z 23011KT 08/00 A3007 RMK A01 T00840003  RH  057%=      5-min Rain = 0
KVP1 170819Z 23011KT 08/00 A3007 RMK A01 T00830002  RH  057%=      5-min Rain = 0
KVP1 170820Z 23010KT 08/00 A3007 RMK A01 T00840003  RH  057%=      5-min Rain = 0
KVP1 170821Z 23011KT 08/00 A3007 RMK A01 T00840003  RH  057%=      5-min Rain = 0
KVP1 170822Z 23011KT 08/00 A3007 RMK A01 T00830003  RH  057%=      5-min Rain = 0
KVP1 170823Z 23011KT 08/00 A3007 RMK A01 T00820003  RH  057%=      5-min Rain = 0
KVP1 170824Z 24010KT 08/00 A3007 RMK A01 T00820004  RH  058%=      5-min Rain = 0
KVP1 170825Z 24010KT 08/00 A3007 RMK A01 T00820003  RH  058%=      5-min Rain = 0
KVP1 170826Z 24011KT 08/00 A3007 RMK A01 T00810003  RH  058%=      5-min Rain = 0
KVP1 170827Z 24010KT 08/00 A3007 RMK A01 T00810003  RH  058%=      5-min Rain = 0
KVP1 170828Z 23011KT 08/00 A3007 RMK A01 T00810003  RH  058%=      5-min Rain = 0
KVP1 170829Z 24010KT 08/00 A3007 RMK A01 T00810003  RH  058%=      5-min Rain = 0
KVP1 170830Z 23009KT 08/00 A3007 RMK A01 T00810003  RH  058%=      5-min Rain = 0
KVP1 170831Z 23009KT 08/00 A3007 RMK A01 T00800004  RH  058%=      5-min Rain = 0
KVP1 170832Z 23009KT 08/00 A3007 RMK A01 T00790004  RH  059%=      5-min Rain = 0
KVP1 170833Z 23009KT 08/00 A3007 RMK A01 T00780004  RH  059%=      5-min Rain = 0
KVP1 170834Z 23010KT 08/00 A3007 RMK A01 T00780004  RH  059%=      5-min Rain = 0
KVP1 170835Z 23010KT 08/00 A3007 RMK A01 T00780004  RH  060%=      5-min Rain = 0
KVP1 170836Z 23009KT 08/00 A3007 RMK A01 T00770004  RH  060%=      5-min Rain = 0
KVP1 170837Z 23009KT 08/00 A3007 RMK A01 T00760004  RH  060%=      5-min Rain = 0
KVP1 170838Z 23010KT 08/00 A3007 RMK A01 T00760004  RH  060%=      5-min Rain = 0
KVP1 170839Z 23009KT 08/00 A3007 RMK A01 T00750004  RH  060%=      5-min Rain = 0
KVP1 170840Z 23010KT 08/00 A3007 RMK A01 T00750004  RH  061%=      5-min Rain = 0
KVP1 170841Z 23010KT 08/00 A3007 RMK A01 T00750004  RH  061%=      5-min Rain = 0
KVP1 170842Z 23010KT 08/00 A3007 RMK A01 T00750004  RH  061%=      5-min Rain = 0
KVP1 170843Z 23010KT 08/00 A3007 RMK A01 T00760004  RH  060%=      5-min Rain = 0
KVP1 170844Z 23010KT 08/00 A3007 RMK A01 T00760004  RH  060%=      5-min Rain = 0
KVP1 170845Z 23010KT 08/00 A3007 RMK A01 T00760004  RH  060%=      5-min Rain = 0
KVP1 170846Z 23009KT 08/00 A3007 RMK A01 T00760004  RH  061%=      5-min Rain = 0
KVP1 170847Z 23009KT 08/00 A3007 RMK A01 T00750004  RH  061%=      5-min Rain = 0
KVP1 170848Z 23010KT 08/00 A3007 RMK A01 T00750004  RH  061%=      5-min Rain = 0
KVP1 170849Z 23009KT 08/00 A3007 RMK A01 T00750004  RH  061%=      5-min Rain = 0
KVP1 170850Z 23009KT 08/00 A3007 RMK A01 T00750003  RH  060%=      5-min Rain = 0
KVP1 170851Z 23009KT 08/00 A3006 RMK A01 T00750003  RH  060%=      5-min Rain = 0
KVP1 170852Z 23010KT 08/00 A3006 RMK A01 T00760003  RH  060%=      5-min Rain = 0
KVP1 170853Z 22009KT 08/00 A3006 RMK A01 T00760003  RH  060%=      5-min Rain = 0
KVP1 170854Z 23010KT 08/00 A3006 RMK A01 T00760002  RH  060%=      5-min Rain = 0
KVP1 170855Z 23009KT 08/00 A3006 RMK A01 T00760002  RH  059%=      5-min Rain = 0
KVP1 170856Z 23009KT 08/00 A3006 RMK A01 T00760002  RH  059%=      5-min Rain = 0
KVP1 170857Z 22009KT 08/00 A3006 RMK A01 T00760002  RH  059%=      5-min Rain = 0
KVP1 170858Z 23010KT 08/00 A3006 RMK A01 T00760002  RH  059%=      5-min Rain = 0
KVP1 170859Z 23009KT 08/00 A3006 RMK A01 T00760002  RH  059%=      5-min Rain = 0
KVP1 170900Z 23010KT 08/00 A3006 RMK A01 T00760002  RH  059%=      5-min Rain = 0
KVP1 170901Z 23010KT 08/00 A3006 RMK A01 T00770001  RH  059%=      5-min Rain = 0
KVP1 170902Z 23010KT 08/00 A3006 RMK A01 T00790002  RH  058%=      5-min Rain = 0
KVP1 170903Z 23010KT 08/00 A3006 RMK A01 T00800002  RH  058%=      5-min Rain = 0
KVP1 170904Z 23009KT 08/00 A3006 RMK A01 T00800001  RH  058%=      5-min Rain = 0
KVP1 170905Z 23009KT 08/00 A3006 RMK A01 T00800002  RH  058%=      5-min Rain = 0
KVP1 170906Z 23009KT 08/00 A3006 RMK A01 T00800001  RH  058%=      5-min Rain = 0
KVP1 170907Z 23010KT 08/00 A3006 RMK A01 T00800002  RH  058%=      5-min Rain = 0
KVP1 170908Z 23010KT 08/00 A3006 RMK A01 T00800001  RH  057%=      5-min Rain = 0
KVP1 170909Z 23010KT 08/00 A3006 RMK A01 T00810001  RH  057%=      5-min Rain = 0
KVP1 170910Z 23010KT 08/00 A3006 RMK A01 T00820001  RH  057%=      5-min Rain = 0
KVP1 170911Z 23010KT 08/00 A3006 RMK A01 T00830001  RH  056%=      5-min Rain = 0
KVP1 170912Z 22010KT 08/00 A3006 RMK A01 T00830001  RH  056%=      5-min Rain = 0
KVP1 170913Z 22010KT 08/00 A3006 RMK A01 T00830001  RH  056%=      5-min Rain = 0
KVP1 170914Z 23009KT 08/00 A3006 RMK A01 T00840001  RH  056%=      5-min Rain = 0
KVP1 170915Z 23009KT 08/00 A3006 RMK A01 T00840001  RH  056%=      5-min Rain = 0
KVP1 170916Z 23009KT 08/00 A3005 RMK A01 T00840001  RH  056%=      5-min Rain = 0
KVP1 170917Z 23009KT 08/00 A3005 RMK A01 T00840001  RH  056%=      5-min Rain = 0
KVP1 170918Z 23009KT 08/00 A3005 RMK A01 T00820001  RH  056%=      5-min Rain = 0
KVP1 170919Z 23009KT 08/00 A3005 RMK A01 T00820001  RH  057%=      5-min Rain = 0
KVP1 170920Z 23009KT 08/00 A3005 RMK A01 T00820001  RH  057%=      5-min Rain = 0
KVP1 170921Z 23009KT 08/00 A3005 RMK A01 T00820001  RH  057%=      5-min Rain = 0
KVP1 170922Z 23008KT 08/00 A3005 RMK A01 T00810001  RH  057%=      5-min Rain = 0
KVP1 170923Z 23009KT 08/00 A3005 RMK A01 T00800001  RH  057%=      5-min Rain = 0
KVP1 170924Z 23009KT 08/00 A3005 RMK A01 T00790001  RH  058%=      5-min Rain = 0
KVP1 170925Z 23008KT 08/00 A3005 RMK A01 T00780001  RH  058%=      5-min Rain = 0
KVP1 170926Z 23009KT 08/00 A3005 RMK A01 T00770001  RH  059%=      5-min Rain = 0
KVP1 170927Z 23008KT 08/00 A3005 RMK A01 T00770001  RH  059%=      5-min Rain = 0
KVP1 170928Z 23008KT 08/00 A3005 RMK A01 T00760002  RH  059%=      5-min Rain = 0
KVP1 170929Z 23008KT 08/00 A3005 RMK A01 T00750001  RH  060%=      5-min Rain = 0
KVP1 170930Z 23009KT 08/00 A3005 RMK A01 T00750002  RH  060%=      5-min Rain = 0
KVP1 170931Z 23008KT 07/00 A3005 RMK A01 T00740002  RH  060%=      5-min Rain = 0
KVP1 170932Z 23008KT 07/00 A3005 RMK A01 T00740002  RH  060%=      5-min Rain = 0
KVP1 170933Z 23009KT 07/00 A3005 RMK A01 T00730002  RH  061%=      5-min Rain = 0
KVP1 170934Z 23009KT 07/00 A3005 RMK A01 T00730002  RH  061%=      5-min Rain = 0
KVP1 170935Z 23008KT 07/00 A3005 RMK A01 T00730002  RH  061%=      5-min Rain = 0
KVP1 170936Z 23008KT 07/00 A3005 RMK A01 T00730002  RH  061%=      5-min Rain = 0
KVP1 170937Z 23008KT 07/00 A3005 RMK A01 T00720002  RH  061%=      5-min Rain = 0
KVP1 170938Z 23008KT 07/00 A3005 RMK A01 T00710002  RH  061%=      5-min Rain = 0
KVP1 170939Z 23008KT 07/00 A3005 RMK A01 T00710003  RH  062%=      5-min Rain = 0
KVP1 170940Z 23008KT 07/00 A3005 RMK A01 T00690002  RH  062%=      5-min Rain = 0
KVP1 170941Z 23008KT 07/00 A3005 RMK A01 T00690002  RH  063%=      5-min Rain = 0
KVP1 170942Z 23008KT 07/00 A3005 RMK A01 T00680003  RH  063%=      5-min Rain = 0
KVP1 170943Z 23008KT 07/00 A3005 RMK A01 T00680003  RH  063%=      5-min Rain = 0
KVP1 170944Z 24008KT 07/00 A3005 RMK A01 T00670003  RH  064%=      5-min Rain = 0
KVP1 170945Z 24007KT 07/00 A3005 RMK A01 T00660003  RH  064%=      5-min Rain = 0
KVP1 170946Z 24008KT 07/00 A3005 RMK A01 T00660003  RH  064%=      5-min Rain = 0
KVP1 170947Z 24008KT 07/00 A3005 RMK A01 T00650003  RH  065%=      5-min Rain = 0
KVP1 170948Z 24008KT 07/00 A3005 RMK A01 T00650004  RH  065%=      5-min Rain = 0
KVP1 170949Z 24008KT 06/00 A3005 RMK A01 T00640004  RH  065%=      5-min Rain = 0
KVP1 170950Z 24008KT 06/00 A3005 RMK A01 T00640004  RH  066%=      5-min Rain = 0
KVP1 170951Z 24009KT 06/00 A3005 RMK A01 T00630004  RH  066%=      5-min Rain = 0
KVP1 170952Z 24009KT 06/01 A3005 RMK A01 T00630005  RH  066%=      5-min Rain = 0
KVP1 170953Z 24009KT 06/01 A3005 RMK A01 T00640005  RH  066%=      5-min Rain = 0
KVP1 170954Z 23009KT 06/01 A3005 RMK A01 T00640006  RH  066%=      5-min Rain = 0
KVP1 170955Z 23009KT 07/01 A3005 RMK A01 T00650006  RH  066%=      5-min Rain = 0
KVP1 170956Z 23009KT 07/01 A3005 RMK A01 T00660006  RH  066%=      5-min Rain = 0
KVP1 170957Z 23009KT 07/01 A3005 RMK A01 T00670007  RH  065%=      5-min Rain = 0
KVP1 170958Z 23009KT 07/01 A3005 RMK A01 T00670007  RH  066%=      5-min Rain = 0
KVP1 170959Z 23009KT 07/01 A3005 RMK A01 T00660007  RH  066%=      5-min Rain = 0
KVP1 171000Z 23009KT 07/01 A3005 RMK A01 T00660007  RH  066%=      5-min Rain = 0
KVP1 171001Z 23008KT 07/01 A3005 RMK A01 T00660007  RH  066%=      5-min Rain = 0
KVP1 171002Z 23008KT 07/01 A3005 RMK A01 T00650007  RH  066%=      5-min Rain = 0
KVP1 171003Z 23008KT 07/01 A3005 RMK A01 T00650007  RH  066%=      5-min Rain = 0
KVP1 171004Z 23009KT 06/01 A3005 RMK A01 T00640007  RH  067%=      5-min Rain = 0
KVP1 171005Z 23009KT 06/01 A3005 RMK A01 T00640007  RH  067%=      5-min Rain = 0
KVP1 171006Z 23009KT 06/01 A3005 RMK A01 T00640007  RH  067%=      5-min Rain = 0
KVP1 171007Z 23009KT 06/01 A3005 RMK A01 T00640007  RH  067%=      5-min Rain = 0
KVP1 171008Z 22009KT 06/01 A3005 RMK A01 T00640007  RH  067%=      5-min Rain = 0
KVP1 171009Z 22009KT 06/01 A3005 RMK A01 T00640007  RH  067%=      5-min Rain = 0
KVP1 171010Z 23009KT 06/01 A3004 RMK A01 T00640007  RH  067%=      5-min Rain = 0
KVP1 171011Z 23009KT 06/01 A3004 RMK A01 T00640007  RH  067%=      5-min Rain = 0
KVP1 171012Z 23009KT 06/01 A3004 RMK A01 T00640007  RH  067%=      5-min Rain = 0
KVP1 171013Z 23009KT 06/01 A3004 RMK A01 T00640007  RH  067%=      5-min Rain = 0
KVP1 171014Z 23009KT 07/01 A3004 RMK A01 T00650007  RH  066%=      5-min Rain = 0
KVP1 171015Z 23010KT 07/01 A3004 RMK A01 T00650007  RH  066%=      5-min Rain = 0
KVP1 171016Z 23010KT 07/01 A3004 RMK A01 T00660007  RH  066%=      5-min Rain = 0
KVP1 171017Z 23010KT 07/01 A3004 RMK A01 T00660007  RH  066%=      5-min Rain = 0
KVP1 171018Z 23009KT 07/01 A3004 RMK A01 T00680007  RH  065%=      5-min Rain = 0
KVP1 171019Z 23010KT 07/01 A3004 RMK A01 T00690007  RH  065%=      5-min Rain = 0
KVP1 171020Z 23009KT 07/01 A3004 RMK A01 T00690007  RH  065%=      5-min Rain = 0
KVP1 171021Z 23009KT 07/01 A3004 RMK A01 T00690007  RH  064%=      5-min Rain = 0
KVP1 171022Z 23010KT 07/01 A3004 RMK A01 T00690007  RH  065%=      5-min Rain = 0
KVP1 171023Z 23010KT 07/01 A3004 RMK A01 T00700007  RH  065%=      5-min Rain = 0
KVP1 171024Z 23010KT 07/01 A3004 RMK A01 T00700007  RH  064%=      5-min Rain = 0
KVP1 171025Z 23010KT 07/01 A3004 RMK A01 T00700007  RH  064%=      5-min Rain = 0
KVP1 171026Z 23010KT 07/01 A3004 RMK A01 T00710008  RH  064%=      5-min Rain = 0
KVP1 171027Z 23009KT 07/01 A3004 RMK A01 T00720008  RH  064%=      5-min Rain = 0
KVP1 171028Z 23009KT 07/01 A3004 RMK A01 T00730008  RH  063%=      5-min Rain = 0
KVP1 171029Z 23009KT 07/01 A3004 RMK A01 T00730008  RH  063%=      5-min Rain = 0
KVP1 171030Z 23009KT 07/01 A3004 RMK A01 T00730008  RH  063%=      5-min Rain = 0
KVP1 171031Z 23009KT 07/01 A3004 RMK A01 T00730008  RH  063%=      5-min Rain = 0
KVP1 171032Z 23009KT 07/01 A3004 RMK A01 T00720008  RH  064%=      5-min Rain = 0
KVP1 171033Z 23009KT 07/01 A3004 RMK A01 T00710008  RH  064%=      5-min Rain = 0
KVP1 171034Z 23009KT 07/01 A3004 RMK A01 T00700008  RH  065%=      5-min Rain = 0
KVP1 171035Z 23009KT 07/01 A3004 RMK A01 T00680008  RH  065%=      5-min Rain = 0
KVP1 171036Z 23009KT 07/01 A3004 RMK A01 T00670008  RH  066%=      5-min Rain = 0
KVP1 171037Z 23009KT 07/01 A3004 RMK A01 T00670008  RH  066%=      5-min Rain = 0
KVP1 171038Z 23009KT 07/01 A3004 RMK A01 T00660008  RH  066%=      5-min Rain = 0
KVP1 171039Z 23008KT 07/01 A3004 RMK A01 T00660008  RH  066%=      5-min Rain = 0
KVP1 171040Z 24009KT 07/01 A3004 RMK A01 T00660008  RH  066%=      5-min Rain = 0
KVP1 171041Z 24008KT 07/01 A3004 RMK A01 T00670008  RH  066%=      5-min Rain = 0
KVP1 171042Z 24008KT 07/01 A3004 RMK A01 T00670009  RH  066%=      5-min Rain = 0
KVP1 171043Z 24008KT 07/01 A3004 RMK A01 T00670009  RH  066%=      5-min Rain = 0
KVP1 171044Z 24008KT 07/01 A3004 RMK A01 T00670009  RH  066%=      5-min Rain = 0
KVP1 171045Z 24008KT 07/01 A3004 RMK A01 T00660009  RH  067%=      5-min Rain = 0
KVP1 171046Z 24008KT 07/01 A3004 RMK A01 T00660009  RH  067%=      5-min Rain = 0
KVP1 171047Z 24008KT 07/01 A3004 RMK A01 T00650009  RH  067%=      5-min Rain = 0
KVP1 171048Z 24008KT 07/01 A3004 RMK A01 T00650009  RH  067%=      5-min Rain = 0
KVP1 171049Z 23008KT 06/01 A3004 RMK A01 T00640009  RH  068%=      5-min Rain = 0
KVP1 171050Z 23008KT 06/01 A3004 RMK A01 T00630009  RH  068%=      5-min Rain = 0
KVP1 171051Z 23008KT 06/01 A3004 RMK A01 T00630009  RH  069%=      5-min Rain = 0
KVP1 171052Z 23009KT 06/01 A3004 RMK A01 T00630010  RH  069%=      5-min Rain = 0
KVP1 171053Z 23008KT 06/01 A3004 RMK A01 T00630010  RH  069%=      5-min Rain = 0
KVP1 171054Z 23009KT 06/01 A3004 RMK A01 T00620010  RH  069%=      5-min Rain = 0
KVP1 171055Z 23008KT 06/01 A3004 RMK A01 T00610010  RH  069%=      5-min Rain = 0
KVP1 171056Z 23009KT 06/01 A3004 RMK A01 T00610009  RH  070%=      5-min Rain = 0
KVP1 171057Z 23009KT 06/01 A3004 RMK A01 T00610009  RH  070%=      5-min Rain = 0
KVP1 171058Z 23008KT 06/01 A3004 RMK A01 T00600009  RH  070%=      5-min Rain = 0
KVP1 171059Z 23008KT 06/01 A3004 RMK A01 T00600009  RH  070%=      5-min Rain = 0
KVP1 171100Z 23009KT 06/01 A3004 RMK A01 T00600009  RH  070%=      5-min Rain = 0
KVP1 171101Z 23008KT 06/01 A3004 RMK A01 T00590009  RH  070%=      5-min Rain = 0
KVP1 171102Z 23009KT 06/01 A3004 RMK A01 T00590010  RH  071%=      5-min Rain = 0
KVP1 171103Z 23009KT 06/01 A3004 RMK A01 T00590010  RH  071%=      5-min Rain = 0
KVP1 171104Z 23009KT 06/01 A3004 RMK A01 T00580010  RH  071%=      5-min Rain = 0
KVP1 171105Z 23009KT 06/01 A3004 RMK A01 T00580010  RH  071%=      5-min Rain = 0
KVP1 171106Z 23008KT 06/01 A3004 RMK A01 T00570010  RH  071%=      5-min Rain = 0
KVP1 171107Z 23008KT 06/01 A3004 RMK A01 T00570010  RH  072%=      5-min Rain = 0
KVP1 171108Z 23008KT 06/01 A3004 RMK A01 T00560010  RH  072%=      5-min Rain = 0
KVP1 171109Z 23009KT 06/01 A3004 RMK A01 T00560010  RH  072%=      5-min Rain = 0
KVP1 171110Z 23008KT 06/01 A3004 RMK A01 T00550009  RH  073%=      5-min Rain = 0
KVP1 171111Z 23008KT 05/01 A3004 RMK A01 T00540009  RH  073%=      5-min Rain = 0
KVP1 171112Z 23009KT 05/01 A3004 RMK A01 T00530009  RH  073%=      5-min Rain = 0
KVP1 171113Z 23009KT 05/01 A3004 RMK A01 T00530009  RH  073%=      5-min Rain = 0
KVP1 171114Z 23009KT 05/01 A3003 RMK A01 T00520009  RH  074%=      5-min Rain = 0
KVP1 171115Z 23009KT 05/01 A3003 RMK A01 T00510009  RH  074%=      5-min Rain = 0
KVP1 171116Z 23009KT 05/01 A3003 RMK A01 T00510009  RH  074%=      5-min Rain = 0
KVP1 171117Z 23009KT 05/01 A3003 RMK A01 T00510009  RH  074%=      5-min Rain = 0
KVP1 171118Z 23009KT 05/01 A3003 RMK A01 T00510009  RH  074%=      5-min Rain = 0
KVP1 171119Z 23009KT 05/01 A3003 RMK A01 T00500009  RH  074%=      5-min Rain = 0
KVP1 171120Z 24009KT 05/01 A3003 RMK A01 T00500009  RH  075%=      5-min Rain = 0
KVP1 171121Z 24008KT 05/01 A3003 RMK A01 T00510009  RH  074%=      5-min Rain = 0
KVP1 171122Z 24009KT 05/01 A3003 RMK A01 T00510009  RH  074%=      5-min Rain = 0
KVP1 171123Z 23009KT 05/01 A3003 RMK A01 T00520010  RH  074%=      5-min Rain = 0
KVP1 171124Z 24009KT 05/01 A3003 RMK A01 T00540010  RH  074%=      5-min Rain = 0
KVP1 171125Z 24009KT 06/01 A3003 RMK A01 T00550011  RH  073%=      5-min Rain = 0
KVP1 171126Z 24009KT 06/01 A3003 RMK A01 T00560011  RH  073%=      5-min Rain = 0
KVP1 171127Z 24009KT 06/01 A3003 RMK A01 T00560011  RH  073%=      5-min Rain = 0
KVP1 171128Z 24009KT 06/01 A3003 RMK A01 T00560011  RH  073%=      5-min Rain = 0
KVP1 171129Z 24009KT 06/01 A3003 RMK A01 T00560011  RH  073%=      5-min Rain = 0
KVP1 171130Z 24008KT 06/01 A3003 RMK A01 T00560011  RH  073%=      5-min Rain = 0
KVP1 171131Z 24008KT 06/01 A3003 RMK A01 T00560011  RH  073%=      5-min Rain = 0
KVP1 171132Z 24008KT 06/01 A3003 RMK A01 T00560012  RH  073%=      5-min Rain = 0
KVP1 171133Z 24008KT 06/01 A3003 RMK A01 T00560012  RH  073%=      5-min Rain = 0
KVP1 171134Z 24008KT 06/01 A3003 RMK A01 T00560012  RH  073%=      5-min Rain = 0
KVP1 171135Z 24008KT 06/01 A3003 RMK A01 T00560012  RH  073%=      5-min Rain = 0
KVP1 171136Z 24008KT 06/01 A3003 RMK A01 T00560011  RH  073%=      5-min Rain = 0
KVP1 171137Z 24008KT 06/01 A3003 RMK A01 T00560012  RH  073%=      5-min Rain = 0
KVP1 171138Z 24008KT 06/01 A3003 RMK A01 T00550011  RH  073%=      5-min Rain = 0
KVP1 171139Z 24008KT 06/01 A3003 RMK A01 T00550011  RH  073%=      5-min Rain = 0
KVP1 171140Z 24008KT 05/01 A3003 RMK A01 T00540011  RH  074%=      5-min Rain = 0
KVP1 171141Z 23008KT 05/01 A3003 RMK A01 T00530011  RH  074%=      5-min Rain = 0
KVP1 171142Z 23008KT 05/01 A3002 RMK A01 T00520010  RH  074%=      5-min Rain = 0
KVP1 171143Z 23008KT 05/01 A3002 RMK A01 T00510010  RH  075%=      5-min Rain = 0
KVP1 171144Z 23008KT 05/01 A3002 RMK A01 T00500010  RH  075%=      5-min Rain = 0
KVP1 171145Z 23008KT 05/01 A3002 RMK A01 T00490009  RH  076%=      5-min Rain = 0
KVP1 171146Z 22008KT 05/01 A3002 RMK A01 T00480009  RH  076%=      5-min Rain = 0
KVP1 171147Z 23008KT 05/01 A3002 RMK A01 T00470009  RH  076%=      5-min Rain = 0
KVP1 171148Z 23008KT 05/01 A3002 RMK A01 T00460009  RH  077%=      5-min Rain = 0
KVP1 171149Z 23008KT 05/01 A3002 RMK A01 T00450009  RH  077%=      5-min Rain = 0
KVP1 171150Z 23008KT 05/01 A3002 RMK A01 T00450009  RH  077%=      5-min Rain = 0
KVP1 171151Z 23008KT 04/01 A3002 RMK A01 T00440008  RH  078%=      5-min Rain = 0
KVP1 171152Z 23007KT 04/01 A3002 RMK A01 T00440008  RH  078%=      5-min Rain = 0
KVP1 171153Z 23007KT 04/01 A3002 RMK A01 T00430008  RH  078%=      5-min Rain = 0
KVP1 171154Z 23007KT 04/01 A3002 RMK A01 T00420008  RH  079%=      5-min Rain = 0
KVP1 171155Z 23008KT 04/01 A3002 RMK A01 T00410008  RH  079%=      5-min Rain = 0
KVP1 171156Z 23008KT 04/01 A3002 RMK A01 T00400007  RH  079%=      5-min Rain = 0
KVP1 171157Z 23008KT 04/01 A3002 RMK A01 T00400007  RH  079%=      5-min Rain = 0
KVP1 171158Z 23008KT 04/01 A3002 RMK A01 T00400007  RH  079%=      5-min Rain = 0
KVP1 171159Z 23008KT 04/01 A3002 RMK A01 T00390007  RH  080%=      5-min Rain = 0
KVP1 171200Z 23008KT 04/01 A3002 RMK A01 T00390007  RH  080%=      5-min Rain = 0
KVP1 171201Z 23008KT 04/01 A3002 RMK A01 T00380007  RH  080%=      5-min Rain = 0
KVP1 171202Z 23008KT 04/01 A3002 RMK A01 T00380007  RH  080%=      5-min Rain = 0
KVP1 171203Z 23008KT 04/01 A3002 RMK A01 T00380007  RH  080%=      5-min Rain = 0
KVP1 171204Z 23009KT 04/01 A3002 RMK A01 T00380007  RH  080%=      5-min Rain = 0
KVP1 171205Z 22008KT 04/01 A3002 RMK A01 T00380007  RH  080%=      5-min Rain = 0
KVP1 171206Z 22008KT 04/01 A3002 RMK A01 T00390007  RH  079%=      5-min Rain = 0
KVP1 171207Z 22008KT 04/01 A3002 RMK A01 T00400007  RH  079%=      5-min Rain = 0
KVP1 171208Z 22008KT 04/01 A3002 RMK A01 T00390007  RH  079%=      5-min Rain = 0
KVP1 171209Z 21008KT 04/01 A3002 RMK A01 T00390007  RH  079%=      5-min Rain = 0
KVP1 171210Z 21008KT 04/01 A3002 RMK A01 T00380006  RH  079%=      5-min Rain = 0
KVP1 171211Z 21009KT 04/01 A3002 RMK A01 T00370006  RH  080%=      5-min Rain = 0
KVP1 171212Z 21009KT 04/01 A3002 RMK A01 T00370006  RH  080%=      5-min Rain = 0
KVP1 171213Z 21008KT 04/01 A3002 RMK A01 T00370006  RH  080%=      5-min Rain = 0
KVP1 171214Z 21008KT 04/01 A3002 RMK A01 T00380006  RH  080%=      5-min Rain = 0
KVP1 171215Z 21008KT 04/01 A3002 RMK A01 T00380006  RH  080%=      5-min Rain = 0
KVP1 171216Z 21008KT 04/01 A3002 RMK A01 T00380006  RH  080%=      5-min Rain = 0
KVP1 171217Z 22008KT 04/01 A3002 RMK A01 T00380007  RH  080%=      5-min Rain = 0
KVP1 171218Z 22008KT 04/01 A3002 RMK A01 T00380007  RH  080%=      5-min Rain = 0
KVP1 171219Z 22008KT 04/01 A3002 RMK A01 T00380007  RH  080%=      5-min Rain = 0
KVP1 171220Z 22008KT 04/01 A3002 RMK A01 T00390008  RH  080%=      5-min Rain = 0
KVP1 171221Z 22008KT 04/01 A3003 RMK A01 T00400008  RH  080%=      5-min Rain = 0
KVP1 171222Z 22008KT 04/01 A3003 RMK A01 T00400008  RH  080%=      5-min Rain = 0
KVP1 171223Z 22007KT 04/01 A3003 RMK A01 T00400009  RH  080%=      5-min Rain = 0
KVP1 171224Z 22007KT 04/01 A3003 RMK A01 T00400009  RH  080%=      5-min Rain = 0
KVP1 171225Z 22008KT 04/01 A3003 RMK A01 T00400009  RH  080%=      5-min Rain = 0
KVP1 171226Z 22008KT 04/01 A3003 RMK A01 T00400009  RH  080%=      5-min Rain = 0
KVP1 171227Z 22008KT 04/01 A3003 RMK A01 T00390009  RH  081%=      5-min Rain = 0
KVP1 171228Z 22008KT 04/01 A3003 RMK A01 T00390009  RH  081%=      5-min Rain = 0
KVP1 171229Z 22008KT 04/01 A3003 RMK A01 T00390009  RH  081%=      5-min Rain = 0
KVP1 171230Z 22008KT 04/01 A3003 RMK A01 T00400010  RH  081%=      5-min Rain = 0
KVP1 171231Z 22008KT 04/01 A3003 RMK A01 T00400010  RH  080%=      5-min Rain = 0
KVP1 171232Z 22008KT 04/01 A3003 RMK A01 T00410010  RH  080%=      5-min Rain = 0
KVP1 171233Z 22008KT 04/01 A3003 RMK A01 T00410010  RH  080%=      5-min Rain = 0
KVP1 171234Z 22009KT 04/01 A3003 RMK A01 T00410010  RH  080%=      5-min Rain = 0
KVP1 171235Z 22008KT 04/01 A3003 RMK A01 T00420011  RH  080%=      5-min Rain = 0
KVP1 171236Z 22009KT 04/01 A3003 RMK A01 T00430012  RH  080%=      5-min Rain = 0
KVP1 171237Z 22009KT 04/01 A3003 RMK A01 T00440012  RH  080%=      5-min Rain = 0
KVP1 171238Z 22009KT 05/01 A3002 RMK A01 T00450012  RH  079%=      5-min Rain = 0
KVP1 171239Z 21009KT 05/01 A3002 RMK A01 T00450012  RH  079%=      5-min Rain = 0
KVP1 171240Z 21009KT 05/01 A3002 RMK A01 T00460013  RH  079%=      5-min Rain = 0
KVP1 171241Z 21009KT 05/01 A3002 RMK A01 T00470013  RH  079%=      5-min Rain = 0
KVP1 171242Z 21009KT 05/01 A3002 RMK A01 T00480014  RH  078%=      5-min Rain = 0
KVP1 171243Z 21009KT 05/01 A3002 RMK A01 T00490014  RH  078%=      5-min Rain = 0
KVP1 171244Z 21009KT 05/01 A3002 RMK A01 T00490014  RH  078%=      5-min Rain = 0
KVP1 171245Z 21009KT 05/01 A3002 RMK A01 T00500014  RH  077%=      5-min Rain = 0
KVP1 171246Z 22009KT 05/01 A3002 RMK A01 T00510014  RH  077%=      5-min Rain = 0
KVP1 171247Z 21009KT 05/01 A3002 RMK A01 T00520014  RH  077%=      5-min Rain = 0
KVP1 171248Z 22009KT 05/01 A3002 RMK A01 T00520014  RH  077%=      5-min Rain = 0
KVP1 171249Z 22009KT 05/01 A3002 RMK A01 T00520014  RH  077%=      5-min Rain = 0
KVP1 171250Z 22009KT 05/02 A3002 RMK A01 T00520015  RH  077%=      5-min Rain = 0
KVP1 171251Z 22009KT 05/02 A3002 RMK A01 T00530015  RH  077%=      5-min Rain = 0
KVP1 171252Z 22009KT 05/02 A3002 RMK A01 T00530015  RH  076%=      5-min Rain = 0
KVP1 171253Z 22008KT 05/02 A3002 RMK A01 T00530015  RH  076%=      5-min Rain = 0
KVP1 171254Z 22009KT 05/02 A3002 RMK A01 T00530015  RH  076%=      5-min Rain = 0
KVP1 171255Z 23008KT 05/02 A3002 RMK A01 T00540015  RH  076%=      5-min Rain = 0
KVP1 171256Z 23008KT 05/02 A3002 RMK A01 T00540016  RH  076%=      5-min Rain = 0
KVP1 171257Z 23008KT 05/02 A3002 RMK A01 T00530015  RH  076%=      5-min Rain = 0
KVP1 171258Z 23008KT 05/02 A3002 RMK A01 T00530015  RH  077%=      5-min Rain = 0
KVP1 171259Z 23008KT 05/02 A3002 RMK A01 T00530015  RH  077%=      5-min Rain = 0
KVP1 171300Z 23009KT 05/02 A3002 RMK A01 T00530015  RH  077%=      5-min Rain = 0
KVP1 171301Z 23009KT 05/02 A3002 RMK A01 T00520015  RH  077%=      5-min Rain = 0
KVP1 171302Z 23008KT 05/02 A3002 RMK A01 T00520016  RH  077%=      5-min Rain = 0
KVP1 171303Z 23008KT 05/02 A3002 RMK A01 T00520015  RH  077%=      5-min Rain = 0
KVP1 171304Z 23008KT 05/02 A3003 RMK A01 T00520016  RH  077%=      5-min Rain = 0
KVP1 171305Z 23008KT 05/02 A3003 RMK A01 T00530016  RH  077%=      5-min Rain = 0
KVP1 171306Z 23008KT 05/02 A3003 RMK A01 T00530016  RH  077%=      5-min Rain = 0
KVP1 171307Z 23009KT 05/02 A3003 RMK A01 T00540017  RH  077%=      5-min Rain = 0
KVP1 171308Z 23008KT 06/02 A3003 RMK A01 T00550017  RH  076%=      5-min Rain = 0
KVP1 171309Z 23008KT 06/02 A3003 RMK A01 T00560017  RH  076%=      5-min Rain = 0
KVP1 171310Z 23008KT 06/02 A3003 RMK A01 T00570018  RH  076%=      5-min Rain = 0
KVP1 171311Z 22008KT 06/02 A3003 RMK A01 T00570018  RH  076%=      5-min Rain = 0
KVP1 171312Z 22007KT 06/02 A3003 RMK A01 T00580018  RH  076%=      5-min Rain = 0
KVP1 171313Z 22007KT 06/02 A3003 RMK A01 T00580018  RH  076%=      5-min Rain = 0
KVP1 171314Z 22008KT 06/02 A3003 RMK A01 T00580019  RH  076%=      5-min Rain = 0
KVP1 171315Z 21008KT 06/02 A3003 RMK A01 T00580019  RH  076%=      5-min Rain = 0
KVP1 171316Z 22008KT 06/02 A3003 RMK A01 T00580018  RH  076%=      5-min Rain = 0
KVP1 171317Z 22008KT 06/02 A3003 RMK A01 T00570018  RH  076%=      5-min Rain = 0
KVP1 171318Z 22008KT 06/02 A3003 RMK A01 T00570019  RH  076%=      5-min Rain = 0
KVP1 171319Z 22007KT 06/02 A3003 RMK A01 T00570019  RH  076%=      5-min Rain = 0
KVP1 171320Z 21007KT 06/02 A3003 RMK A01 T00570019  RH  077%=      5-min Rain = 0
KVP1 171321Z 21008KT 06/02 A3003 RMK A01 T00570020  RH  077%=      5-min Rain = 0
KVP1 171322Z 21008KT 06/02 A3003 RMK A01 T00580020  RH  077%=      5-min Rain = 0
KVP1 171323Z 21008KT 06/02 A3003 RMK A01 T00570020  RH  077%=      5-min Rain = 0
KVP1 171324Z 21008KT 06/02 A3004 RMK A01 T00570020  RH  077%=      5-min Rain = 0
KVP1 171325Z 21008KT 06/02 A3004 RMK A01 T00580020  RH  076%=      5-min Rain = 0
KVP1 171326Z 21008KT 06/02 A3003 RMK A01 T00590020  RH  076%=      5-min Rain = 0
KVP1 171327Z 21008KT 06/02 A3003 RMK A01 T00600021  RH  076%=      5-min Rain = 0
KVP1 171328Z 21007KT 06/02 A3003 RMK A01 T00610021  RH  076%=      5-min Rain = 0
KVP1 171329Z 21008KT 06/02 A3003 RMK A01 T00620021  RH  075%=      5-min Rain = 0
KVP1 171330Z 21008KT 06/02 A3003 RMK A01 T00620021  RH  075%=      5-min Rain = 0
KVP1 171331Z 21007KT 06/02 A3003 RMK A01 T00630022  RH  075%=      5-min Rain = 0
KVP1 171332Z 21008KT 06/02 A3003 RMK A01 T00640022  RH  075%=      5-min Rain = 0
KVP1 171333Z 21008KT 07/02 A3003 RMK A01 T00650022  RH  074%=      5-min Rain = 0
KVP1 171334Z 22008KT 07/02 A3003 RMK A01 T00660022  RH  074%=      5-min Rain = 0
KVP1 171335Z 22008KT 07/02 A3003 RMK A01 T00670023  RH  074%=      5-min Rain = 0
KVP1 171336Z 22008KT 07/02 A3003 RMK A01 T00680024  RH  073%=      5-min Rain = 0
KVP1 171337Z 22008KT 07/02 A3003 RMK A01 T00690024  RH  073%=      5-min Rain = 0
KVP1 171338Z 22009KT 07/02 A3003 RMK A01 T00700024  RH  072%=      5-min Rain = 0
KVP1 171339Z 22009KT 07/02 A3003 RMK A01 T00710024  RH  072%=      5-min Rain = 0
KVP1 171340Z 22008KT 07/03 A3003 RMK A01 T00720025  RH  072%=      5-min Rain = 0
KVP1 171341Z 22008KT 07/03 A3003 RMK A01 T00730025  RH  072%=      5-min Rain = 0
KVP1 171342Z 22009KT 07/03 A3003 RMK A01 T00740026  RH  071%=      5-min Rain = 0
KVP1 171343Z 22008KT 08/03 A3003 RMK A01 T00750025  RH  071%=      5-min Rain = 0
KVP1 171344Z 22008KT 08/03 A3004 RMK A01 T00760026  RH  070%=      5-min Rain = 0
KVP1 171345Z 22009KT 08/03 A3004 RMK A01 T00780026  RH  070%=      5-min Rain = 0
KVP1 171346Z 23008KT 08/03 A3004 RMK A01 T00780026  RH  070%=      5-min Rain = 0
KVP1 171347Z 23008KT 08/03 A3004 RMK A01 T00790027  RH  070%=      5-min Rain = 0
KVP1 171348Z 24008KT 08/03 A3004 RMK A01 T00790027  RH  069%=      5-min Rain = 0
KVP1 171349Z 24008KT 08/03 A3004 RMK A01 T00800027  RH  069%=      5-min Rain = 0
KVP1 171350Z 24008KT 08/03 A3004 RMK A01 T00810028  RH  069%=      5-min Rain = 0
KVP1 171351Z 24008KT 08/03 A3004 RMK A01 T00820028  RH  069%=      5-min Rain = 0
KVP1 171352Z 24009KT 08/03 A3004 RMK A01 T00840028  RH  068%=      5-min Rain = 0
KVP1 171353Z 25010KT 09/03 A3004 RMK A01 T00850027  RH  067%=      5-min Rain = 0
KVP1 171354Z 25009KT 09/03 A3004 RMK A01 T00870027  RH  066%=      5-min Rain = 0
KVP1 171355Z 25009KT 09/03 A3004 RMK A01 T00880028  RH  066%=      5-min Rain = 0
KVP1 171356Z 24010KT 09/03 A3004 RMK A01 T00890028  RH  065%=      5-min Rain = 0
KVP1 171357Z 25009KT 09/03 A3004 RMK A01 T00900028  RH  065%=      5-min Rain = 0
KVP1 171358Z 25009KT 09/03 A3004 RMK A01 T00910028  RH  065%=      5-min Rain = 0
KVP1 171359Z 24008KT 09/03 A3004 RMK A01 T00910029  RH  065%=      5-min Rain = 0
KVP1 171400Z 24009KT 09/03 A3004 RMK A01 T00930030  RH  065%=      5-min Rain = 0
KVP1 171401Z 24009KT 09/03 A3004 RMK A01 T00930030  RH  065%=      5-min Rain = 0
KVP1 171402Z 24009KT 09/03 A3004 RMK A01 T00940030  RH  064%=      5-min Rain = 0
KVP1 171403Z 24009KT 10/03 A3004 RMK A01 T00950031  RH  064%=      5-min Rain = 0
KVP1 171404Z 24009KT 10/03 A3004 RMK A01 T00960031  RH  064%=      5-min Rain = 0
KVP1 171405Z 24010KT 10/03 A3004 RMK A01 T00970032  RH  064%=      5-min Rain = 0
KVP1 171406Z 25010KT 10/03 A3004 RMK A01 T00980032  RH  063%=      5-min Rain = 0
KVP1 171407Z 25008KT 10/03 A3004 RMK A01 T00980032  RH  063%=      5-min Rain = 0
KVP1 171408Z 25009KT 10/03 A3004 RMK A01 T00990033  RH  064%=      5-min Rain = 0
KVP1 171409Z 25009KT 10/03 A3004 RMK A01 T01000033  RH  063%=      5-min Rain = 0
KVP1 171410Z 25009KT 10/03 A3004 RMK A01 T01000033  RH  063%=      5-min Rain = 0
KVP1 171411Z 24009KT 10/03 A3004 RMK A01 T01010033  RH  063%=      5-min Rain = 0
KVP1 171412Z 24008KT 10/03 A3004 RMK A01 T01020033  RH  062%=      5-min Rain = 0
KVP1 171413Z 24008KT 10/04 A3004 RMK A01 T01020035  RH  063%=      5-min Rain = 0
KVP1 171414Z 24009KT 10/04 A3004 RMK A01 T01030035  RH  063%=      5-min Rain = 0
KVP1 171415Z 25009KT 11/04 A3004 RMK A01 T01050035  RH  062%=      5-min Rain = 0
KVP1 171416Z 24008KT 11/04 A3004 RMK A01 T01060036  RH  062%=      5-min Rain = 0
KVP1 171417Z 25009KT 11/04 A3004 RMK A01 T01070036  RH  061%=      5-min Rain = 0
KVP1 171418Z 25009KT 11/04 A3004 RMK A01 T01080037  RH  061%=      5-min Rain = 0
KVP1 171419Z 24008KT 11/04 A3004 RMK A01 T01100038  RH  061%=      5-min Rain = 0
KVP1 171420Z 25010KT 11/04 A3004 RMK A01 T01120037  RH  060%=      5-min Rain = 0
KVP1 171421Z 24009KT 11/04 A3004 RMK A01 T01130036  RH  059%=      5-min Rain = 0
KVP1 171422Z 24010KT 11/04 A3004 RMK A01 T01140036  RH  059%=      5-min Rain = 0
KVP1 171423Z 24010KT 12/04 A3004 RMK A01 T01150038  RH  059%=      5-min Rain = 0
KVP1 171424Z 24010KT 12/04 A3004 RMK A01 T01170037  RH  058%=      5-min Rain = 0
KVP1 171425Z 24012KT 12/04 A3004 RMK A01 T01180036  RH  057%=      5-min Rain = 0
KVP1 171426Z 25011KT 12/04 A3004 RMK A01 T01190038  RH  058%=      5-min Rain = 0
KVP1 171427Z 25013KT 12/04 A3004 RMK A01 T01200038  RH  057%=      5-min Rain = 0
KVP1 171428Z 25013KT 12/04 A3004 RMK A01 T01210037  RH  056%=      5-min Rain = 0
KVP1 171429Z 25011KT 12/04 A3004 RMK A01 T01220038  RH  056%=      5-min Rain = 0
KVP1 171430Z 25012KT 12/04 A3004 RMK A01 T01240039  RH  056%=      5-min Rain = 0
KVP1 171431Z 24013KT 13/04 A3004 RMK A01 T01250038  RH  055%=      5-min Rain = 0
KVP1 171432Z 24012KT 13/04 A3004 RMK A01 T01260037  RH  055%=      5-min Rain = 0
KVP1 171433Z 25014KT 13/04 A3004 RMK A01 T01260037  RH  054%=      5-min Rain = 0
KVP1 171434Z 25012KT 13/04 A3004 RMK A01 T01270036  RH  054%=      5-min Rain = 0
KVP1 171435Z 25012KT 13/04 A3004 RMK A01 T01290037  RH  054%=      5-min Rain = 0
KVP1 171436Z 25013KT 13/04 A3004 RMK A01 T01300036  RH  053%=      5-min Rain = 0
KVP1 171437Z 24014KT 13/04 A3004 RMK A01 T01300037  RH  053%=      5-min Rain = 0
KVP1 171438Z 24013KT 13/04 A3004 RMK A01 T01320037  RH  052%=      5-min Rain = 0
KVP1 171439Z 24013KT 13/04 A3004 RMK A01 T01330035  RH  051%=      5-min Rain = 0
KVP1 171440Z 24012KT 13/04 A3004 RMK A01 T01340036  RH  052%=      5-min Rain = 0
KVP1 171441Z 24011KT 14/04 A3004 RMK A01 T01350037  RH  051%=      5-min Rain = 0
KVP1 171442Z 24013KT 14/04 A3004 RMK A01 T01370038  RH  051%=      5-min Rain = 0
KVP1 171443Z 24012KT 14/04 A3004 RMK A01 T01370036  RH  051%=      5-min Rain = 0
KVP1 171444Z 24012KT 14/04 A3004 RMK A01 T01370036  RH  050%=      5-min Rain = 0
KVP1 171445Z 24011KT 14/04 A3004 RMK A01 T01380037  RH  050%=      5-min Rain = 0
KVP1 171446Z 24012KT 14/04 A3004 RMK A01 T01400037  RH  050%=      5-min Rain = 0
KVP1 171447Z 24013KT 14/04 A3004 RMK A01 T01410036  RH  049%=      5-min Rain = 0
KVP1 171448Z 23012KT 14/04 A3004 RMK A01 T01420035  RH  049%=      5-min Rain = 0
KVP1 171449Z 24011KT 14/04 A3004 RMK A01 T01420036  RH  049%=      5-min Rain = 0
KVP1 171450Z 24013KT 15/04 A3004 RMK A01 T01450038  RH  049%=      5-min Rain = 0
KVP1 171451Z 24013KT 15/04 A3004 RMK A01 T01450035  RH  047%=      5-min Rain = 0
KVP1 171452Z 24012KT 15/04 A3004 RMK A01 T01460035  RH  047%=      5-min Rain = 0
KVP1 171453Z 24013KT 15/04 A3004 RMK A01 T01470036  RH  047%=      5-min Rain = 0
KVP1 171454Z 24013KT 15/04 A3004 RMK A01 T01480035  RH  047%=      5-min Rain = 0
KVP1 171455Z 24012KT 15/04 A3004 RMK A01 T01490038  RH  047%=      5-min Rain = 0
KVP1 171456Z 24014KT 15/04 A3004 RMK A01 T01510036  RH  046%=      5-min Rain = 0
KVP1 171457Z 24013KT 15/04 A3004 RMK A01 T01520036  RH  046%=      5-min Rain = 0
KVP1 171458Z 24013KT 15/04 A3004 RMK A01 T01530037  RH  046%=      5-min Rain = 0
KVP1 171459Z 24012KT 15/04 A3004 RMK A01 T01540037  RH  045%=      5-min Rain = 0
KVP1 171500Z 24012KT 16/04 A3004 RMK A01 T01560038  RH  045%=      5-min Rain = 0
KVP1 171501Z 24013KT 16/04 A3004 RMK A01 T01580037  RH  044%=      5-min Rain = 0
KVP1 171502Z 23013KT 16/04 A3004 RMK A01 T01580036  RH  044%=      5-min Rain = 0
KVP1 171503Z 23015KT 16/04 A3004 RMK A01 T01590035  RH  044%=      5-min Rain = 0
KVP1 171504Z 24016KT 16/03 A3004 RMK A01 T01600032  RH  042%=      5-min Rain = 0
KVP1 171505Z 23016KT 16/03 A3004 RMK A01 T01600030  RH  042%=      5-min Rain = 0
KVP1 171506Z 24014KT 16/03 A3004 RMK A01 T01600032  RH  043%=      5-min Rain = 0
KVP1 171507Z 24015KT 16/03 A3004 RMK A01 T01610031  RH  042%=      5-min Rain = 0
KVP1 171508Z 24014KT 16/03 A3004 RMK A01 T01610031  RH  042%=      5-min Rain = 0
KVP1 171509Z 24014KT 16/03 A3004 RMK A01 T01620032  RH  042%=      5-min Rain = 0
KVP1 171510Z 24012KT 16/04 A3004 RMK A01 T01630036  RH  043%=      5-min Rain = 0
KVP1 171511Z 24016KT 17/03 A3004 RMK A01 T01650034  RH  042%=      5-min Rain = 0
KVP1 171512Z 23014KT 17/03 A3004 RMK A01 T01650033  RH  041%=      5-min Rain = 0
KVP1 171513Z 23015KT 17/03 A3004 RMK A01 T01650034  RH  041%=      5-min Rain = 0
KVP1 171514Z 23012KT 17/03 A3004 RMK A01 T01660033  RH  041%=      5-min Rain = 0
KVP1 171515Z 23013KT 17/04 A3004 RMK A01 T01670036  RH  041%=      5-min Rain = 0
KVP1 171516Z 23012KT 17/04 A3004 RMK A01 T01690037  RH  041%=      5-min Rain = 0
KVP1 171517Z 23016KT 17/04 A3004 RMK A01 T01720035  RH  040%=      5-min Rain = 0
KVP1 171518Z 24012G18KT 17/03 A3004 RMK A01 T01710034  RH  040%=      5-min Rain = 0
KVP1 171519Z 23014KT 17/03 A3004 RMK A01 T01720034  RH  040%=      5-min Rain = 0
KVP1 171520Z 23015KT 17/03 A3004 RMK A01 T01730033  RH  039%=      5-min Rain = 0
KVP1 171521Z 24017KT 17/03 A3004 RMK A01 T01740031  RH  038%=      5-min Rain = 0
KVP1 171522Z 23015KT 17/03 A3004 RMK A01 T01730029  RH  038%=      5-min Rain = 0
KVP1 171523Z 23012KT 17/03 A3004 RMK A01 T01740032  RH  039%=      5-min Rain = 0
KVP1 171524Z 23016KT 18/03 A3004 RMK A01 T01760032  RH  038%=      5-min Rain = 0
KVP1 171525Z 23015KT 18/03 A3004 RMK A01 T01770029  RH  037%=      5-min Rain = 0
KVP1 171526Z 24017KT 18/03 A3004 RMK A01 T01780031  RH  037%=      5-min Rain = 0
KVP1 171527Z 23015KT 18/03 A3004 RMK A01 T01790028  RH  037%=      5-min Rain = 0
KVP1 171528Z 24016KT 18/03 A3004 RMK A01 T01790030  RH  037%=      5-min Rain = 0
KVP1 171529Z 23014KT 18/03 A3004 RMK A01 T01780031  RH  037%=      5-min Rain = 0
KVP1 171530Z 23016KT 18/03 A3004 RMK A01 T01800030  RH  037%=      5-min Rain = 0
KVP1 171531Z 23014KT 18/03 A3004 RMK A01 T01800031  RH  037%=      5-min Rain = 0
KVP1 171532Z 23018G23KT 18/03 A3003 RMK A01 T01810031  RH  037%=      5-min Rain = 0
KVP1 171533Z 23019KT 18/03 A3003 RMK A01 T01810029  RH  036%=      5-min Rain = 0
KVP1 171534Z 24017KT 18/03 A3003 RMK A01 T01810030  RH  037%=      5-min Rain = 0
KVP1 171535Z 23017KT 18/03 A3003 RMK A01 T01810031  RH  037%=      5-min Rain = 0
KVP1 171536Z 24018KT 18/03 A3003 RMK A01 T01820030  RH  036%=      5-min Rain = 0
KVP1 171537Z 23020KT 18/03 A3003 RMK A01 T01810031  RH  037%=      5-min Rain = 0
KVP1 171538Z 22021KT 18/03 A3003 RMK A01 T01810030  RH  036%=      5-min Rain = 0
KVP1 171539Z 23020KT 18/03 A3003 RMK A01 T01820030  RH  036%=      5-min Rain = 0
KVP1 171540Z 23021KT 18/03 A3003 RMK A01 T01820029  RH  036%=      5-min Rain = 0
KVP1 171541Z 23021KT 18/03 A3003 RMK A01 T01820031  RH  037%=      5-min Rain = 0
KVP1 171542Z 23020KT 18/03 A3003 RMK A01 T01820031  RH  036%=      5-min Rain = 0
KVP1 171543Z 23020KT 18/03 A3003 RMK A01 T01820032  RH  037%=      5-min Rain = 0
KVP1 171544Z 23017KT 18/04 A3003 RMK A01 T01840035  RH  037%=      5-min Rain = 0
KVP1 171545Z 23020KT 19/04 A3003 RMK A01 T01850036  RH  037%=      5-min Rain = 0
KVP1 171546Z 23020KT 19/03 A3003 RMK A01 T01860034  RH  036%=      5-min Rain = 0
KVP1 171547Z 23019G24KT 19/04 A3003 RMK A01 T01860035  RH  037%=      5-min Rain = 0
KVP1 171548Z 23019KT 19/03 A3003 RMK A01 T01850034  RH  037%=      5-min Rain = 0
KVP1 171549Z 23019KT 19/04 A3003 RMK A01 T01850035  RH  037%=      5-min Rain = 0
KVP1 171550Z 23019KT 19/04 A3003 RMK A01 T01860036  RH  037%=      5-min Rain = 0
KVP1 171551Z 23019KT 19/04 A3003 RMK A01 T01860036  RH  037%=      5-min Rain = 0
KVP1 171552Z 24018G23KT 19/04 A3003 RMK A01 T01860037  RH  037%=      5-min Rain = 0
KVP1 171553Z 24019KT 19/04 A3003 RMK A01 T01860036  RH  037%=      5-min Rain = 0
KVP1 171554Z 23017KT 19/04 A3003 RMK A01 T01870038  RH  037%=      5-min Rain = 0
KVP1 171555Z 23013G18KT 19/04 A3003 RMK A01 T01880042  RH  038%=      5-min Rain = 0
KVP1 171556Z 23017G22KT 19/04 A3003 RMK A01 T01910042  RH  038%=      5-min Rain = 0
KVP1 171557Z 23019KT 19/04 A3002 RMK A01 T01910039  RH  037%=      5-min Rain = 0
KVP1 171558Z 23018KT 19/04 A3002 RMK A01 T01900039  RH  037%=      5-min Rain = 0
KVP1 171559Z 22017G23KT 19/04 A3002 RMK A01 T01900041  RH  037%=      5-min Rain = 0
KVP1 171600Z 23020KT 19/04 A3002 RMK A01 T01900040  RH  037%=      5-min Rain = 0
KVP1 171601Z 23016KT 19/04 A3002 RMK A01 T01890041  RH  038%=      5-min Rain = 0
KVP1 171602Z 22016KT 19/04 A3002 RMK A01 T01910044  RH  038%=      5-min Rain = 0
KVP1 171603Z 22019KT 19/04 A3002 RMK A01 T01930041  RH  037%=      5-min Rain = 0
KVP1 171604Z 22019KT 19/04 A3002 RMK A01 T01930040  RH  036%=      5-min Rain = 0
KVP1 171605Z 23019KT 19/04 A3002 RMK A01 T01920041  RH  037%=      5-min Rain = 0
KVP1 171606Z 23018KT 19/04 A3002 RMK A01 T01920042  RH  037%=      5-min Rain = 0
KVP1 171607Z 23019KT 19/04 A3002 RMK A01 T01910042  RH  037%=      5-min Rain = 0
KVP1 171608Z 23015G22KT 19/04 A3002 RMK A01 T01910044  RH  038%=      5-min Rain = 0
KVP1 171609Z 23018KT 19/04 A3002 RMK A01 T01930043  RH  037%=      5-min Rain = 0
KVP1 171610Z 23014KT 19/05 A3002 RMK A01 T01930045  RH  038%=      5-min Rain = 0
KVP1 171611Z 24018KT 19/04 A3002 RMK A01 T01930043  RH  037%=      5-min Rain = 0
KVP1 171612Z 24020KT 19/04 A3002 RMK A01 T01930042  RH  037%=      5-min Rain = 0
KVP1 171613Z 23019KT 19/04 A3002 RMK A01 T01920043  RH  037%=      5-min Rain = 0
KVP1 171614Z 23016G21KT 19/04 A3002 RMK A01 T01910044  RH  038%=      5-min Rain = 0
KVP1 171615Z 24015G20KT 19/05 A3002 RMK A01 T01920046  RH  038%=      5-min Rain = 0
KVP1 171616Z 23017KT 20/05 A3002 RMK A01 T01950048  RH  038%=      5-min Rain = 0
KVP1 171617Z 24019KT 20/05 A3002 RMK A01 T01960047  RH  037%=      5-min Rain = 0
KVP1 171618Z 24016G21KT 20/05 A3002 RMK A01 T01950046  RH  038%=      5-min Rain = 0
KVP1 171619Z 23017KT 20/05 A3002 RMK A01 T01960049  RH  038%=      5-min Rain = 0
KVP1 171620Z 24018KT 20/05 A3002 RMK A01 T01970047  RH  037%=      5-min Rain = 0
KVP1 171621Z 23018KT 20/05 A3002 RMK A01 T01950047  RH  038%=      5-min Rain = 0
KVP1 171622Z 23020KT 20/05 A3002 RMK A01 T01950049  RH  038%=      5-min Rain = 0
KVP1 171623Z 23018KT 20/05 A3002 RMK A01 T01960048  RH  038%=      5-min Rain = 0
KVP1 171624Z 23013KT 20/05 A3002 RMK A01 T01960050  RH  038%=      5-min Rain = 0
KVP1 171625Z 22012KT 20/06 A3002 RMK A01 T01990056  RH  039%=      5-min Rain = 0
KVP1 171626Z 23016KT 20/05 A3002 RMK A01 T02030053  RH  037%=      5-min Rain = 0
KVP1 171627Z 23017KT 20/05 A3002 RMK A01 T02020050  RH  037%=      5-min Rain = 0
KVP1 171628Z 23018KT 20/05 A3002 RMK A01 T01990049  RH  037%=      5-min Rain = 0
KVP1 171629Z 23016KT 20/05 A3002 RMK A01 T01980048  RH  037%=      5-min Rain = 0
KVP1 171630Z 23015KT 20/05 A3002 RMK A01 T01980051  RH  038%=      5-min Rain = 0
KVP1 171631Z 24017KT 20/05 A3002 RMK A01 T02000050  RH  037%=      5-min Rain = 0
KVP1 171632Z 24015KT 20/05 A3002 RMK A01 T01990050  RH  038%=      5-min Rain = 0
KVP1 171633Z 24014KT 20/05 A3002 RMK A01 T01990052  RH  038%=      5-min Rain = 0
KVP1 171634Z 23015KT 20/06 A3002 RMK A01 T02010055  RH  038%=      5-min Rain = 0
KVP1 171635Z 23016KT 20/06 A3002 RMK A01 T02040055  RH  038%=      5-min Rain = 0
KVP1 171636Z 22015KT 20/05 A3002 RMK A01 T02040052  RH  037%=      5-min Rain = 0
KVP1 171637Z 23017KT 20/05 A3002 RMK A01 T02040053  RH  037%=      5-min Rain = 0
KVP1 171638Z 23016KT 20/05 A3002 RMK A01 T02040053  RH  037%=      5-min Rain = 0
KVP1 171639Z 22013KT 20/05 A3002 RMK A01 T02040053  RH  037%=      5-min Rain = 0
KVP1 171640Z 23015G20KT 21/06 A3002 RMK A01 T02050058  RH  038%=      5-min Rain = 0
KVP1 171641Z 24017KT 21/06 A3002 RMK A01 T02060055  RH  037%=      5-min Rain = 0
KVP1 171642Z 23015KT 21/06 A3001 RMK A01 T02060056  RH  037%=      5-min Rain = 0
KVP1 171643Z 23016KT 21/06 A3001 RMK A01 T02050057  RH  038%=      5-min Rain = 0
KVP1 171644Z 24018KT 21/06 A3001 RMK A01 T02060055  RH  037%=      5-min Rain = 0
KVP1 171645Z 24016KT 21/06 A3001 RMK A01 T02050055  RH  038%=      5-min Rain = 0
KVP1 171646Z 23013KT 21/06 A3001 RMK A01 T02060057  RH  038%=      5-min Rain = 0
KVP1 171647Z 23014KT 21/06 A3001 RMK A01 T02070060  RH  038%=      5-min Rain = 0
KVP1 171648Z 23014KT 21/06 A3001 RMK A01 T02090058  RH  037%=      5-min Rain = 0
KVP1 171649Z 24016KT 21/06 A3001 RMK A01 T02080058  RH  038%=      5-min Rain = 0
KVP1 171650Z 23017KT 21/06 A3001 RMK A01 T02080057  RH  037%=      5-min Rain = 0
KVP1 171651Z 23018KT 21/06 A3001 RMK A01 T02080056  RH  037%=      5-min Rain = 0
KVP1 171652Z 23015KT 21/06 A3001 RMK A01 T02090058  RH  037%=      5-min Rain = 0
KVP1 171653Z 23016KT 21/06 A3001 RMK A01 T02100057  RH  037%=      5-min Rain = 0
KVP1 171654Z 22017KT 21/06 A3001 RMK A01 T02100057  RH  037%=      5-min Rain = 0
KVP1 171655Z 22017KT 21/06 A3001 RMK A01 T02100057  RH  037%=      5-min Rain = 0
KVP1 171656Z 23016KT 21/06 A3001 RMK A01 T02090056  RH  037%=      5-min Rain = 0
KVP1 171657Z 23015KT 21/06 A3001 RMK A01 T02080055  RH  037%=      5-min Rain = 0
KVP1 171658Z 24016KT 21/06 A3001 RMK A01 T02070057  RH  038%=      5-min Rain = 0
KVP1 171659Z 24016G21KT 21/06 A3001 RMK A01 T02070059  RH  038%=      5-min Rain = 0
KVP1 171700Z 23017KT 21/06 A3001 RMK A01 T02090057  RH  037%=      5-min Rain = 0
KVP1 171701Z 23016KT 21/06 A3001 RMK A01 T02090056  RH  037%=      5-min Rain = 0
KVP1 171702Z 24015KT 21/06 A3001 RMK A01 T02090056  RH  037%=      5-min Rain = 0
KVP1 171703Z 23014KT 21/06 A3001 RMK A01 T02100057  RH  037%=      5-min Rain = 0
KVP1 171704Z 22012KT 21/06 A30 RMK A01 T02110057  RH  037%=      5-min Rain = 0
KVP1 171705Z 24011KT 21/06 A30 RMK A01 T02120061  RH  037%=      5-min Rain = 0
KVP1 171706Z 24015KT 21/06 A30 RMK A01 T02140061  RH  037%=      5-min Rain = 0
KVP1 171707Z 23015KT 22/06 A30 RMK A01 T02160061  RH  037%=      5-min Rain = 0
KVP1 171708Z 23015KT 22/06 A30 RMK A01 T02160058  RH  036%=      5-min Rain = 0
KVP1 171709Z 23016KT 22/06 A30 RMK A01 T02150056  RH  036%=      5-min Rain = 0
KVP1 171710Z 23012KT 21/06 A30 RMK A01 T02130057  RH  036%=      5-min Rain = 0
KVP1 171711Z 22015KT 21/06 A30 RMK A01 T02130060  RH  037%=      5-min Rain = 0
KVP1 171712Z 23015KT 22/06 A30 RMK A01 T02160062  RH  037%=      5-min Rain = 0
KVP1 171713Z 23015KT 22/06 A30 RMK A01 T02170057  RH  035%=      5-min Rain = 0
KVP1 171714Z 24014KT 22/06 A30 RMK A01 T02150058  RH  036%=      5-min Rain = 0
KVP1 171715Z 23016G21KT 22/06 A30 RMK A01 T02160057  RH  035%=      5-min Rain = 0
KVP1 171716Z 23016KT 22/06 A30 RMK A01 T02170055  RH  035%=      5-min Rain = 0
KVP1 171717Z 22015KT 22/05 A30 RMK A01 T02170054  RH  035%=      5-min Rain = 0
KVP1 171718Z 22014G19KT 22/05 A30 RMK A01 T02170052  RH  034%=      5-min Rain = 0
KVP1 171719Z 23017KT 22/05 A30 RMK A01 T02170053  RH  034%=      5-min Rain = 0
KVP1 171720Z 24014KT 22/05 A30 RMK A01 T02170052  RH  034%=      5-min Rain = 0
KVP1 171721Z 24012G17KT 22/06 A30 RMK A01 T02160055  RH  035%=      5-min Rain = 0
KVP1 171722Z 23013G18KT 22/06 A30 RMK A01 T02200059  RH  035%=      5-min Rain = 0
KVP1 171723Z 24016G21KT 22/06 A30 RMK A01 T02240058  RH  034%=      5-min Rain = 0
KVP1 171724Z 23017KT 22/05 A30 RMK A01 T02240054  RH  033%=      5-min Rain = 0
KVP1 171725Z 22014KT 22/05 A30 RMK A01 T02200050  RH  033%=      5-min Rain = 0
KVP1 171726Z 24015KT 22/06 A30 RMK A01 T02200058  RH  035%=      5-min Rain = 0
KVP1 171727Z 25017KT 22/05 A30 RMK A01 T02220053  RH  033%=      5-min Rain = 0
KVP1 171728Z 24016KT 22/05 A30 RMK A01 T02210052  RH  033%=      5-min Rain = 0
KVP1 171729Z 24014KT 22/05 A30 RMK A01 T02200053  RH  034%=      5-min Rain = 0
KVP1 171730Z 24012KT 22/05 A30 RMK A01 T02190054  RH  034%=      5-min Rain = 0
KVP1 171731Z 23012KT 22/06 A30 RMK A01 T02200058  RH  035%=      5-min Rain = 0
KVP1 171732Z 24015KT 22/06 A30 RMK A01 T02220056  RH  034%=      5-min Rain = 0
KVP1 171733Z 23013KT 22/06 A30 RMK A01 T02220055  RH  034%=      5-min Rain = 0
KVP1 171734Z 24015KT 22/06 A30 RMK A01 T02240057  RH  034%=      5-min Rain = 0
KVP1 171735Z 24013KT 22/06 A30 RMK A01 T02240057  RH  034%=      5-min Rain = 0
KVP1 171736Z 24012KT 22/06 A30 RMK A01 T02210057  RH  034%=      5-min Rain = 0
KVP1 171737Z 24013KT 22/06 A30 RMK A01 T02220059  RH  035%=      5-min Rain = 0
KVP1 171738Z 23013KT 22/06 A30 RMK A01 T02230055  RH  033%=      5-min Rain = 0
KVP1 171739Z 23012KT 22/06 A30 RMK A01 T02240057  RH  034%=      5-min Rain = 0
KVP1 171740Z 22011G17KT 23/06 A2999 RMK A01 T02250060  RH  034%=      5-min Rain = 0
KVP1 171741Z 22015KT 23/06 A2999 RMK A01 T02280056  RH  033%=      5-min Rain = 0
KVP1 171742Z 23014G19KT 23/06 A2999 RMK A01 T02290055  RH  032%=      5-min Rain = 0
KVP1 171743Z 23015KT 23/05 A2999 RMK A01 T02270053  RH  032%=      5-min Rain = 0
KVP1 171744Z 24015KT 23/05 A2999 RMK A01 T02250052  RH  032%=      5-min Rain = 0
KVP1 171745Z 22011KT 22/05 A2999 RMK A01 T02230053  RH  033%=      5-min Rain = 0
KVP1 171746Z 22011KT 22/06 A2999 RMK A01 T02240057  RH  034%=      5-min Rain = 0
KVP1 171747Z 24014KT 23/06 A2999 RMK A01 T02290057  RH  033%=      5-min Rain = 0
KVP1 171748Z 24014KT 23/05 A2999 RMK A01 T02310054  RH  032%=      5-min Rain = 0
KVP1 171749Z 23014KT 23/05 A2999 RMK A01 T02310050  RH  031%=      5-min Rain = 0
KVP1 171750Z 23014KT 23/05 A2999 RMK A01 T02280052  RH  032%=      5-min Rain = 0
KVP1 171751Z 23013KT 23/05 A2999 RMK A01 T02270051  RH  032%=      5-min Rain = 0
KVP1 171752Z 23014KT 23/05 A2999 RMK A01 T02280053  RH  032%=      5-min Rain = 0
KVP1 171753Z 23015KT 23/05 A2999 RMK A01 T02290048  RH  031%=      5-min Rain = 0
KVP1 171754Z 22012KT 23/05 A2999 RMK A01 T02300050  RH  031%=      5-min Rain = 0
KVP1 171755Z 24014KT 23/05 A2999 RMK A01 T02300053  RH  032%=      5-min Rain = 0
KVP1 171756Z 23013KT 23/05 A2999 RMK A01 T02310054  RH  032%=      5-min Rain = 0
KVP1 171757Z 23012KT 23/06 A2999 RMK A01 T02320055  RH  032%=      5-min Rain = 0
KVP1 171758Z 22011KT 23/06 A2999 RMK A01 T02330055  RH  031%=      5-min Rain = 0
KVP1 171759Z 24014KT 23/06 A2998 RMK A01 T02340057  RH  032%=      5-min Rain = 0
KVP1 171800Z 23015KT 23/05 A2998 RMK A01 T02330051  RH  031%=      5-min Rain = 0
KVP1 171801Z 22014KT 23/05 A2998 RMK A01 T02310053  RH  032%=      5-min Rain = 0
KVP1 171802Z 22011KT 23/06 A2999 RMK A01 T02290055  RH  032%=      5-min Rain = 0
KVP1 171803Z 21014KT 23/06 A2998 RMK A01 T02300056  RH  032%=      5-min Rain = 0
KVP1 171804Z 21012KT 23/05 A2998 RMK A01 T02320053  RH  031%=      5-min Rain = 0
KVP1 171805Z 22012KT 23/06 A2998 RMK A01 T02330058  RH  032%=      5-min Rain = 0
KVP1 171806Z 22015KT 24/05 A2998 RMK A01 T02360054  RH  031%=      5-min Rain = 0
KVP1 171807Z 22012KT 23/05 A2998 RMK A01 T02340051  RH  031%=      5-min Rain = 0
KVP1 171808Z 21015KT 23/05 A2998 RMK A01 T02340052  RH  031%=      5-min Rain = 0
KVP1 171809Z 21013KT 24/05 A2998 RMK A01 T02350053  RH  031%=      5-min Rain = 0
KVP1 171810Z 22010KT 23/06 A2998 RMK A01 T02340055  RH  031%=      5-min Rain = 0
KVP1 171811Z 22012G19KT 23/06 A2998 RMK A01 T02330058  RH  032%=      5-min Rain = 0
KVP1 171812Z 22014KT 24/06 A2998 RMK A01 T02350055  RH  031%=      5-min Rain = 0
KVP1 171813Z 21015KT 23/05 A2998 RMK A01 T02340048  RH  030%=      5-min Rain = 0
KVP1 171814Z 21015KT 23/04 A2998 RMK A01 T02330043  RH  029%=      5-min Rain = 0
KVP1 171815Z 23014KT 23/05 A2998 RMK A01 T02320049  RH  030%=      5-min Rain = 0
KVP1 171816Z 22015KT 23/05 A2998 RMK A01 T02330049  RH  030%=      5-min Rain = 0
KVP1 171817Z 22013KT 23/05 A2998 RMK A01 T02340050  RH  030%=      5-min Rain = 0
KVP1 171818Z 23012KT 23/05 A2998 RMK A01 T02340049  RH  030%=      5-min Rain = 0
KVP1 171819Z 23009G14KT 23/05 A2997 RMK A01 T02330051  RH  031%=      5-min Rain = 0
KVP1 171820Z 22013KT 24/06 A2997 RMK A01 T02350056  RH  032%=      5-min Rain = 0
KVP1 171821Z 22015KT 24/05 A2997 RMK A01 T02390052  RH  030%=      5-min Rain = 0
KVP1 171822Z 22012KT 24/05 A2997 RMK A01 T02370050  RH  030%=      5-min Rain = 0
KVP1 171823Z 20012KT 24/05 A2997 RMK A01 T02360049  RH  030%=      5-min Rain = 0
KVP1 171824Z 21015KT 24/05 A2997 RMK A01 T02370046  RH  029%=      5-min Rain = 0
KVP1 171825Z 22015KT 24/04 A2997 RMK A01 T02370043  RH  028%=      5-min Rain = 0
KVP1 171826Z 21015KT 24/04 A2997 RMK A01 T02350042  RH  028%=      5-min Rain = 0
KVP1 171827Z 21014KT 24/04 A2997 RMK A01 T02350044  RH  029%=      5-min Rain = 0
KVP1 171828Z 21011KT 24/04 A2997 RMK A01 T02360044  RH  029%=      5-min Rain = 0
KVP1 171829Z 22015KT 24/04 A2997 RMK A01 T02370042  RH  028%=      5-min Rain = 0
KVP1 171830Z 22012KT 24/05 A2997 RMK A01 T02400046  RH  028%=      5-min Rain = 0
KVP1 171831Z 21010KT 24/05 A2997 RMK A01 T02430051  RH  029%=      5-min Rain = 0
KVP1 171832Z 21010KT 24/05 A2997 RMK A01 T02440053  RH  029%=      5-min Rain = 0
KVP1 171833Z 23014KT 25/05 A2997 RMK A01 T02460053  RH  029%=      5-min Rain = 0
KVP1 171834Z 24012KT 25/05 A2997 RMK A01 T02460047  RH  028%=      5-min Rain = 0
KVP1 171835Z 23013KT 25/05 A2997 RMK A01 T02450046  RH  028%=      5-min Rain = 0
KVP1 171836Z 23015KT 24/05 A2997 RMK A01 T02440047  RH  028%=      5-min Rain = 0
KVP1 171837Z 23013KT 24/05 A2996 RMK A01 T02420049  RH  029%=      5-min Rain = 0
KVP1 171838Z 23012G18KT 24/05 A2996 RMK A01 T02430047  RH  028%=      5-min Rain = 0
KVP1 171839Z 22015KT 24/05 A2996 RMK A01 T02430046  RH  028%=      5-min Rain = 0
KVP1 171840Z 22015KT 25/04 A2996 RMK A01 T02450042  RH  027%=      5-min Rain = 0
KVP1 171841Z 23015KT 24/05 A2996 RMK A01 T02440047  RH  028%=      5-min Rain = 0
KVP1 171842Z 23013KT 24/05 A2996 RMK A01 T02420047  RH  028%=      5-min Rain = 0
KVP1 171843Z 23012KT 24/05 A2996 RMK A01 T02410048  RH  029%=      5-min Rain = 0
KVP1 171844Z 22013KT 24/05 A2996 RMK A01 T02410047  RH  028%=      5-min Rain = 0
KVP1 171845Z 21015KT 24/04 A2996 RMK A01 T02420044  RH  028%=      5-min Rain = 0
KVP1 171846Z 21015KT 25/04 A2996 RMK A01 T02450041  RH  027%=      5-min Rain = 0
KVP1 171847Z 23011KT 24/04 A2996 RMK A01 T02430042  RH  027%=      5-min Rain = 0
KVP1 171848Z 22010KT 24/05 A2996 RMK A01 T02430051  RH  029%=      5-min Rain = 0
KVP1 171849Z 21012KT 25/05 A2996 RMK A01 T02450047  RH  028%=      5-min Rain = 0
KVP1 171850Z 22012KT 25/04 A2996 RMK A01 T02460043  RH  027%=      5-min Rain = 0
KVP1 171851Z 20014KT 25/04 A2996 RMK A01 T02450042  RH  027%=      5-min Rain = 0
KVP1 171852Z 22016KT 25/04 A2996 RMK A01 T02450040  RH  026%=      5-min Rain = 0
KVP1 171853Z 21015KT 25/04 A2996 RMK A01 T02460041  RH  027%=      5-min Rain = 0
KVP1 171854Z 22012KT 24/04 A2996 RMK A01 T02440040  RH  027%=      5-min Rain = 0
KVP1 171855Z 23013KT 24/04 A2995 RMK A01 T02430042  RH  027%=      5-min Rain = 0
KVP1 171856Z 21014KT 24/04 A2995 RMK A01 T02440042  RH  027%=      5-min Rain = 0
KVP1 171857Z 22015KT 25/04 A2995 RMK A01 T02460041  RH  026%=      5-min Rain = 0
KVP1 171858Z 23013KT 25/04 A2995 RMK A01 T02460040  RH  026%=      5-min Rain = 0
KVP1 171859Z 23013KT 25/04 A2995 RMK A01 T02460041  RH  026%=      5-min Rain = 0
KVP1 171900Z 23014KT 25/04 A2995 RMK A01 T02460040  RH  026%=      5-min Rain = 0
KVP1 171901Z 22011KT 25/04 A2995 RMK A01 T02460041  RH  026%=      5-min Rain = 0
KVP1 171902Z 21013KT 25/04 A2995 RMK A01 T02480044  RH  027%=      5-min Rain = 0
KVP1 171903Z 21013KT 25/04 A2995 RMK A01 T02500038  RH  025%=      5-min Rain = 0
KVP1 171904Z 21012KT 25/04 A2995 RMK A01 T02500039  RH  025%=      5-min Rain = 0
KVP1 171905Z 20015KT 25/04 A2995 RMK A01 T02510039  RH  025%=      5-min Rain = 0
KVP1 171906Z 21015KT 25/04 A2995 RMK A01 T02510039  RH  025%=      5-min Rain = 0
KVP1 171907Z 21013KT 25/04 A2995 RMK A01 T02510038  RH  025%=      5-min Rain = 0
KVP1 171908Z 21013KT 25/03 A2995 RMK A01 T02510034  RH  024%=      5-min Rain = 0
KVP1 171909Z 20013KT 25/04 A2994 RMK A01 T02500035  RH  025%=      5-min Rain = 0
KVP1 171910Z 20010KT 25/04 A2994 RMK A01 T02490035  RH  025%=      5-min Rain = 0
KVP1 171911Z 22012KT 25/04 A2994 RMK A01 T02490040  RH  026%=      5-min Rain = 0
KVP1 171912Z 21014KT 25/04 A2994 RMK A01 T02510040  RH  026%=      5-min Rain = 0
KVP1 171913Z 22012KT 25/04 A2994 RMK A01 T02510036  RH  025%=      5-min Rain = 0
KVP1 171914Z 20011G17KT 25/04 A2994 RMK A01 T02500039  RH  025%=      5-min Rain = 0
KVP1 171915Z 21016KT 25/03 A2994 RMK A01 T02520032  RH  024%=      5-min Rain = 0
KVP1 171916Z 20015KT 25/03 A2994 RMK A01 T02520031  RH  024%=      5-min Rain = 0
KVP1 171917Z 21015KT 25/03 A2994 RMK A01 T02520030  RH  024%=      5-min Rain = 0
KVP1 171918Z 21014KT 25/03 A2994 RMK A01 T02520027  RH  023%=      5-min Rain = 0
KVP1 171919Z 23015KT 25/03 A2994 RMK A01 T02510033  RH  024%=      5-min Rain = 0
KVP1 171920Z 22014KT 25/03 A2994 RMK A01 T02520028  RH  023%=      5-min Rain = 0
KVP1 171921Z 22014KT 25/03 A2994 RMK A01 T02520028  RH  023%=      5-min Rain = 0
KVP1 171922Z 23016KT 25/03 A2994 RMK A01 T02540029  RH  023%=      5-min Rain = 0
KVP1 171923Z 22013KT 25/03 A2994 RMK A01 T02540028  RH  023%=      5-min Rain = 0
KVP1 171924Z 23015KT 26/03 A2994 RMK A01 T02550028  RH  023%=      5-min Rain = 0
KVP1 171925Z 23015KT 26/02 A2994 RMK A01 T02550021  RH  022%=      5-min Rain = 0
KVP1 171926Z 23013G20KT 25/02 A2993 RMK A01 T02540020  RH  022%=      5-min Rain = 0
KVP1 171927Z 23017KT 25/02 A2993 RMK A01 T02540016  RH  021%=      5-min Rain = 0
KVP1 171928Z 23017KT 26/02 A2993 RMK A01 T02550019  RH  021%=      5-min Rain = 0
KVP1 171929Z 23016KT 26/02 A2993 RMK A01 T02550018  RH  021%=      5-min Rain = 0
KVP1 171930Z 23014KT 26/02 A2993 RMK A01 T02550019  RH  021%=      5-min Rain = 0
KVP1 171931Z 23012KT 26/03 A2993 RMK A01 T02550026  RH  023%=      5-min Rain = 0
KVP1 171932Z 23014KT 26/03 A2993 RMK A01 T02550029  RH  023%=      5-min Rain = 0
KVP1 171933Z 22016KT 26/02 A2993 RMK A01 T02550023  RH  022%=      5-min Rain = 0
KVP1 171934Z 22012KT 25/02 A2993 RMK A01 T02540022  RH  022%=      5-min Rain = 0
KVP1 171935Z 21012KT 25/02 A2993 RMK A01 T02540024  RH  022%=      5-min Rain = 0
KVP1 171936Z 20013KT 25/02 A2993 RMK A01 T02540023  RH  022%=      5-min Rain = 0
KVP1 171937Z 20013KT 26/02 A2993 RMK A01 T02550020  RH  022%=      5-min Rain = 0
KVP1 171938Z 20015KT 26/02 A2993 RMK A01 T02550023  RH  022%=      5-min Rain = 0
KVP1 171939Z 20012KT 26/02 A2993 RMK A01 T02550022  RH  022%=      5-min Rain = 0
KVP1 171940Z 21011KT 26/03 A2993 RMK A01 T02560029  RH  023%=      5-min Rain = 0
KVP1 171941Z 21012G20KT 26/03 A2993 RMK A01 T02590027  RH  022%=      5-min Rain = 0
KVP1 171942Z 21014KT 26/02 A2993 RMK A01 T02620019  RH  021%=      5-min Rain = 0
KVP1 171943Z 21012KT 26/02 A2992 RMK A01 T02610016  RH  020%=      5-min Rain = 0
KVP1 171944Z 20012KT 26/02 A2992 RMK A01 T02580018  RH  021%=      5-min Rain = 0
KVP1 171945Z 20011KT 26/02 A2992 RMK A01 T02570019  RH  021%=      5-min Rain = 0
KVP1 171946Z 19014KT 26/02 A2992 RMK A01 T02580021  RH  021%=      5-min Rain = 0
KVP1 171947Z 20012KT 26/02 A2992 RMK A01 T02580021  RH  021%=      5-min Rain = 0
KVP1 171948Z 21016KT 26/02 A2992 RMK A01 T02600019  RH  021%=      5-min Rain = 0
KVP1 171949Z 22016KT 26/02 A2992 RMK A01 T02590018  RH  021%=      5-min Rain = 0
KVP1 171950Z 24014KT 26/02 A2992 RMK A01 T02580018  RH  021%=      5-min Rain = 0
KVP1 171951Z 22012KT 26/02 A2992 RMK A01 T02570021  RH  022%=      5-min Rain = 0
KVP1 171952Z 20011KT 26/02 A2992 RMK A01 T02580024  RH  022%=      5-min Rain = 0
KVP1 171953Z 20010KT 26/02 A2992 RMK A01 T02580024  RH  022%=      5-min Rain = 0
KVP1 171954Z 21010G15KT 26/02 A2992 RMK A01 T02580023  RH  022%=      5-min Rain = 0
KVP1 171955Z 20010KT 26/03 A2991 RMK A01 T02600029  RH  022%=      5-min Rain = 0
KVP1 171956Z 19014KT 26/02 A2991 RMK A01 T02640024  RH  021%=      5-min Rain = 0
KVP1 171957Z 21014KT 26/02 A2991 RMK A01 T02640018  RH  020%=      5-min Rain = 0
KVP1 171958Z 21013KT 26/02 A2991 RMK A01 T02620020  RH  021%=      5-min Rain = 0
KVP1 171959Z 22014KT 26/02 A2991 RMK A01 T02600019  RH  021%=      5-min Rain = 0
KVP1 172000Z 21012KT 26/02 A2991 RMK A01 T02590018  RH  021%=      5-min Rain = 0
KVP1 172001Z 20009KT 26/02 A2991 RMK A01 T02590015  RH  020%=      5-min Rain = 0
KVP1 172002Z 22007KT 26/02 A2991 RMK A01 T02580020  RH  021%=      5-min Rain = 0
KVP1 172003Z 20010G15KT 26/03 A2991 RMK A01 T02600028  RH  022%=      5-min Rain = 0
KVP1 172004Z 20017KT 27/01 A2991 RMK A01 T02650013  RH  019%=      5-min Rain = 0
KVP1 172005Z 20014KT 26/01 A2991 RMK A01 T02640011  RH  019%=      5-min Rain = 0
KVP1 172006Z 19014KT 26/01 A2991 RMK A01 T02640008  RH  019%=      5-min Rain = 0
KVP1 172007Z 20016KT 26/01 A2991 RMK A01 T02630010  RH  019%=      5-min Rain = 0
KVP1 172008Z 20014KT 26/01 A2991 RMK A01 T02620012  RH  020%=      5-min Rain = 0
KVP1 172009Z 21015KT 26/02 A2991 RMK A01 T02620015  RH  020%=      5-min Rain = 0
KVP1 172010Z 22015KT 26/02 A2991 RMK A01 T02610016  RH  020%=      5-min Rain = 0
KVP1 172011Z 21015KT 26/01 A2991 RMK A01 T02590014  RH  020%=      5-min Rain = 0
KVP1 172012Z 21011G16KT 26/01 A2991 RMK A01 T02580013  RH  020%=      5-min Rain = 0
KVP1 172013Z 22011KT 26/02 A299 RMK A01 T02580016  RH  021%=      5-min Rain = 0
KVP1 172014Z 20015KT 26/02 A299 RMK A01 T02590016  RH  021%=      5-min Rain = 0
KVP1 172015Z 21017KT 26/01 A299 RMK A01 T02600005  RH  019%=      5-min Rain = 0
KVP1 172016Z 21016KT 26/00 A299 RMK A01 T02600002  RH  019%=      5-min Rain = 0
KVP1 172017Z 22015KT 26/01 A299 RMK A01 T02590010  RH  020%=      5-min Rain = 0
KVP1 172018Z 20017KT 26/01 A299 RMK A01 T02590009  RH  019%=      5-min Rain = 0
KVP1 172019Z 21015KT 26/01 A299 RMK A01 T02600009  RH  019%=      5-min Rain = 0
KVP1 172020Z 21012KT 26/01 A299 RMK A01 T02600008  RH  019%=      5-min Rain = 0
KVP1 172021Z 22010G16KT 26/01 A299 RMK A01 T02610008  RH  019%=      5-min Rain = 0
KVP1 172022Z 21011KT 26/02 A299 RMK A01 T02620017  RH  020%=      5-min Rain = 0
KVP1 172023Z 20011KT 26/01 A299 RMK A01 T02640014  RH  020%=      5-min Rain = 0
KVP1 172024Z 19015KT 26/01 A299 RMK A01 T02640014  RH  020%=      5-min Rain = 0
KVP1 172025Z 19014KT 26/01 A299 RMK A01 T02640008  RH  019%=      5-min Rain = 0
KVP1 172026Z 19012KT 26/01 A299 RMK A01 T02630007  RH  019%=      5-min Rain = 0
KVP1 172027Z 21011KT 26/01 A299 RMK A01 T02620010  RH  019%=      5-min Rain = 0
KVP1 172028Z 22012KT 26/02 A299 RMK A01 T02640017  RH  020%=      5-min Rain = 0
KVP1 172029Z 21010KT 27/01 A299 RMK A01 T02650012  RH  019%=      5-min Rain = 0
KVP1 172030Z 21014G20KT 27/02 A299 RMK A01 T02650015  RH  020%=      5-min Rain = 0
KVP1 172031Z 21017KT 27/01 A299 RMK A01 T02650011  RH  019%=      5-min Rain = 0
KVP1 172032Z 21014KT 26/01 A299 RMK A01 T02640010  RH  019%=      5-min Rain = 0
KVP1 172033Z 21013KT 26/01 A299 RMK A01 T02620009  RH  019%=      5-min Rain = 0
KVP1 172034Z 23013KT 26/01 A299 RMK A01 T02610010  RH  019%=      5-min Rain = 0
KVP1 172035Z 22013KT 26/01 A299 RMK A01 T02610012  RH  020%=      5-min Rain = 0
KVP1 172036Z 21011KT 26/01 A299 RMK A01 T02620013  RH  020%=      5-min Rain = 0
KVP1 172037Z 19012KT 26/02 A299 RMK A01 T02630015  RH  020%=      5-min Rain = 0
KVP1 172038Z 19015KT 27/01 A299 RMK A01 T02650010  RH  019%=      5-min Rain = 0
KVP1 172039Z 19017KT 27/01 A299 RMK A01 T02660008  RH  019%=      5-min Rain = 0
KVP1 172040Z 19014KT 27/01 A299 RMK A01 T02650006  RH  018%=      5-min Rain = 0
KVP1 172041Z 19011G16KT 26/00 A299 RMK A01 T02640004  RH  018%=      5-min Rain = 0
KVP1 172042Z 20013KT 26/01 A299 RMK A01 T02630006  RH  019%=      5-min Rain = 0
KVP1 172043Z 19015KT 26/01 A2989 RMK A01 T02640006  RH  019%=      5-min Rain = 0
KVP1 172044Z 20015KT 27/00 A2989 RMK A01 T02660003  RH  018%=      5-min Rain = 0
KVP1 172045Z 21013KT 27/00 A2989 RMK A01 T02650000  RH  018%=      5-min Rain = 0
KVP1 172046Z 19015KT 27/00 A2989 RMK A01 T02650003  RH  018%=      5-min Rain = 0
KVP1 172047Z 20018KT 27/00 A2989 RMK A01 T02650003  RH  018%=      5-min Rain = 0
KVP1 172048Z 19017KT 26/00 A2989 RMK A01 T02640003  RH  018%=      5-min Rain = 0
KVP1 172049Z 20015KT 27/01 A2989 RMK A01 T02650008  RH  019%=      5-min Rain = 0
KVP1 172050Z 21017KT 27/01 A2989 RMK A01 T02670007  RH  018%=      5-min Rain = 0
KVP1 172051Z 20015KT 27/01 A2989 RMK A01 T02660008  RH  019%=      5-min Rain = 0
KVP1 172052Z 19013KT 27/00 A2989 RMK A01 T02660002  RH  018%=      5-min Rain = 0
KVP1 172053Z 20014KT 27/01 A2989 RMK A01 T02650005  RH  018%=      5-min Rain = 0
KVP1 172054Z 21015KT 27/00 A2989 RMK A01 T02660003  RH  018%=      5-min Rain = 0
KVP1 172055Z 20010KT 26/M00 A2989 RMK A01 T02641002  RH  018%=      5-min Rain = 0
KVP1 172056Z 19015G20KT 26/01 A2989 RMK A01 T02640006  RH  019%=      5-min Rain = 0
KVP1 172057Z 19016KT 27/01 A2989 RMK A01 T02660007  RH  018%=      5-min Rain = 0
KVP1 172058Z 20015KT 27/01 A2989 RMK A01 T02660007  RH  018%=      5-min Rain = 0
KVP1 172059Z 19013KT 27/01 A2989 RMK A01 T02650005  RH  018%=      5-min Rain = 0
KVP1 172100Z 20014KT 26/00 A2989 RMK A01 T02640003  RH  018%=      5-min Rain = 0
KVP1 172101Z 20014KT 26/00 A2989 RMK A01 T02640004  RH  018%=      5-min Rain = 0
KVP1 172102Z 20011KT 26/00 A2989 RMK A01 T02640003  RH  018%=      5-min Rain = 0
KVP1 172103Z 21015KT 27/01 A2989 RMK A01 T02650008  RH  019%=      5-min Rain = 0
KVP1 172104Z 20015KT 27/M01 A2989 RMK A01 T02651005  RH  017%=      5-min Rain = 0
KVP1 172105Z 20014KT 26/M00 A2989 RMK A01 T02631001  RH  018%=      5-min Rain = 0
KVP1 172106Z 19015KT 26/00 A2989 RMK A01 T026300-0  RH  018%=      5-min Rain = 0
KVP1 172107Z 20013KT 26/00 A2989 RMK A01 T02630000  RH  018%=      5-min Rain = 0
KVP1 172108Z 20014KT 26/00 A2989 RMK A01 T02640004  RH  018%=      5-min Rain = 0
KVP1 172109Z 20015KT 27/00 A2989 RMK A01 T02650004  RH  018%=      5-min Rain = 0
KVP1 172110Z 22012KT 26/01 A2989 RMK A01 T02640006  RH  019%=      5-min Rain = 0
KVP1 172111Z 21012KT 26/01 A2989 RMK A01 T02640012  RH  019%=      5-min Rain = 0
KVP1 172112Z 19014KT 27/01 A2989 RMK A01 T02660008  RH  019%=      5-min Rain = 0
KVP1 172113Z 18015KT 27/00 A2988 RMK A01 T02670003  RH  018%=      5-min Rain = 0
KVP1 172114Z 19019KT 27/M00 A2988 RMK A01 T02671001  RH  017%=      5-min Rain = 0
KVP1 172115Z 19018G23KT 27/M01 A2988 RMK A01 T02661006  RH  017%=      5-min Rain = 0
KVP1 172116Z 20015KT 26/M00 A2988 RMK A01 T02641002  RH  018%=      5-min Rain = 0
KVP1 172117Z 21011KT 27/00 A2988 RMK A01 T02650003  RH  018%=      5-min Rain = 0
KVP1 172118Z 20012KT 27/01 A2988 RMK A01 T02670007  RH  018%=      5-min Rain = 0
KVP1 172119Z 19013KT 27/00 A2988 RMK A01 T02680001  RH  017%=      5-min Rain = 0
KVP1 172120Z 19014KT 27/00 A2988 RMK A01 T026900-0  RH  017%=      5-min Rain = 0
KVP1 172121Z 19012KT 27/00 A2988 RMK A01 T026700-0  RH  017%=      5-min Rain = 0
KVP1 172122Z 21012KT 27/00 A2988 RMK A01 T02680004  RH  018%=      5-min Rain = 0
KVP1 172123Z 21014KT 27/00 A2988 RMK A01 T02690004  RH  018%=      5-min Rain = 0
KVP1 172124Z 19014G19KT 27/01 A2988 RMK A01 T02690007  RH  018%=      5-min Rain = 0
KVP1 172125Z 20015KT 27/01 A2988 RMK A01 T02700005  RH  018%=      5-min Rain = 0
KVP1 172126Z 20014KT 27/01 A2988 RMK A01 T02700010  RH  018%=      5-min Rain = 0
KVP1 172127Z 20012KT 27/01 A2988 RMK A01 T02680008  RH  018%=      5-min Rain = 0
KVP1 172128Z 20014KT 27/01 A2988 RMK A01 T02670012  RH  019%=      5-min Rain = 0
KVP1 172129Z 20016KT 27/01 A2988 RMK A01 T02670011  RH  019%=      5-min Rain = 0
KVP1 172130Z 20015KT 27/01 A2988 RMK A01 T02660008  RH  019%=      5-min Rain = 0
KVP1 172131Z 20013KT 26/01 A2988 RMK A01 T02640007  RH  019%=      5-min Rain = 0
KVP1 172132Z 20013KT 26/01 A2988 RMK A01 T02640010  RH  019%=      5-min Rain = 0
KVP1 172133Z 19014KT 26/01 A2988 RMK A01 T02640009  RH  019%=      5-min Rain = 0
KVP1 172134Z 19012KT 27/00 A2988 RMK A01 T02650003  RH  018%=      5-min Rain = 0
KVP1 172135Z 20012KT 26/01 A2988 RMK A01 T02640005  RH  018%=      5-min Rain = 0
KVP1 172136Z 19013KT 27/01 A2988 RMK A01 T02650007  RH  019%=      5-min Rain = 0
KVP1 172137Z 18015KT 27/01 A2988 RMK A01 T02650008  RH  019%=      5-min Rain = 0
KVP1 172138Z 18015KT 27/01 A2988 RMK A01 T02650008  RH  019%=      5-min Rain = 0
KVP1 172139Z 19014G19KT 27/01 A2988 RMK A01 T02650008  RH  019%=      5-min Rain = 0
KVP1 172140Z 19014KT 27/01 A2988 RMK A01 T02650008  RH  019%=      5-min Rain = 0
KVP1 172141Z 20015G20KT 27/01 A2987 RMK A01 T02660006  RH  018%=      5-min Rain = 0
KVP1 172142Z 18013KT 27/01 A2988 RMK A01 T02650011  RH  019%=      5-min Rain = 0
KVP1 172143Z 18014KT 27/01 A2988 RMK A01 T02660012  RH  019%=      5-min Rain = 0
KVP1 172144Z 19012KT 27/01 A2988 RMK A01 T02670009  RH  019%=      5-min Rain = 0
KVP1 172145Z 20012KT 27/01 A2988 RMK A01 T02660010  RH  019%=      5-min Rain = 0
KVP1 172146Z 19009KT 27/01 A2987 RMK A01 T02660011  RH  019%=      5-min Rain = 0
KVP1 172147Z 19013KT 27/02 A2988 RMK A01 T02660016  RH  020%=      5-min Rain = 0
KVP1 172148Z 20014KT 27/01 A2987 RMK A01 T02680011  RH  019%=      5-min Rain = 0
KVP1 172149Z 20016KT 27/01 A2987 RMK A01 T02660006  RH  018%=      5-min Rain = 0
KVP1 172150Z 20014KT 26/00 A2987 RMK A01 T02630004  RH  018%=      5-min Rain = 0
KVP1 172151Z 20014KT 26/00 A2987 RMK A01 T02610002  RH  018%=      5-min Rain = 0
KVP1 172152Z 20014KT 26/00 A2987 RMK A01 T02600002  RH  018%=      5-min Rain = 0
KVP1 172153Z 19016KT 26/00 A2987 RMK A01 T02600002  RH  018%=      5-min Rain = 0
KVP1 172154Z 20013KT 26/00 A2987 RMK A01 T02600004  RH  019%=      5-min Rain = 0
KVP1 172155Z 19013KT 26/01 A2987 RMK A01 T02600008  RH  019%=      5-min Rain = 0
KVP1 172156Z 19012KT 26/01 A2987 RMK A01 T02600009  RH  019%=      5-min Rain = 0
KVP1 172157Z 20014KT 26/00 A2987 RMK A01 T02610004  RH  019%=      5-min Rain = 0
KVP1 172158Z 19014KT 26/00 A2987 RMK A01 T02600002  RH  018%=      5-min Rain = 0
KVP1 172159Z 19015KT 26/01 A2987 RMK A01 T02580005  RH  019%=      5-min Rain = 0
KVP1 172200Z 18015KT 26/01 A2987 RMK A01 T02580006  RH  019%=      5-min Rain = 0
KVP1 172201Z 19014KT 26/01 A2987 RMK A01 T02570007  RH  019%=      5-min Rain = 0
KVP1 172202Z 20016KT 26/01 A2987 RMK A01 T02560006  RH  019%=      5-min Rain = 0
KVP1 172203Z 19016KT 26/00 A2987 RMK A01 T02550002  RH  019%=      5-min Rain = 0
KVP1 172204Z 20014KT 26/00 A2987 RMK A01 T02550003  RH  019%=      5-min Rain = 0
KVP1 172205Z 20016KT 25/01 A2987 RMK A01 T02540006  RH  020%=      5-min Rain = 0
KVP1 172206Z 20013KT 25/01 A2987 RMK A01 T02540010  RH  020%=      5-min Rain = 0
KVP1 172207Z 20015KT 25/01 A2987 RMK A01 T02540013  RH  021%=      5-min Rain = 0
KVP1 172208Z 19016KT 25/01 A2987 RMK A01 T02530014  RH  021%=      5-min Rain = 0
KVP1 172209Z 18014KT 25/01 A2987 RMK A01 T02520014  RH  021%=      5-min Rain = 0
KVP1 172210Z 18013KT 25/02 A2987 RMK A01 T02510017  RH  022%=      5-min Rain = 0
KVP1 172211Z 18011G16KT 25/02 A2987 RMK A01 T02510019  RH  022%=      5-min Rain = 0
KVP1 172212Z 18015KT 25/02 A2987 RMK A01 T02500019  RH  022%=      5-min Rain = 0
KVP1 172213Z 18012KT 25/02 A2987 RMK A01 T02490019  RH  022%=      5-min Rain = 0
KVP1 172214Z 18010KT 25/02 A2987 RMK A01 T02470023  RH  023%=      5-min Rain = 0
KVP1 172215Z 18012KT 25/02 A2987 RMK A01 T02460024  RH  024%=      5-min Rain = 0
KVP1 172216Z 17010KT 25/03 A2987 RMK A01 T02450025  RH  024%=      5-min Rain = 0
KVP1 172217Z 18011KT 24/03 A2987 RMK A01 T02440027  RH  024%=      5-min Rain = 0
KVP1 172218Z 18012KT 24/03 A2987 RMK A01 T02430027  RH  024%=      5-min Rain = 0
KVP1 172219Z 18011KT 24/03 A2987 RMK A01 T02430027  RH  025%=      5-min Rain = 0
KVP1 172220Z 18012KT 24/02 A2987 RMK A01 T02420023  RH  024%=      5-min Rain = 0
KVP1 172221Z 18011KT 24/03 A2987 RMK A01 T02420025  RH  024%=      5-min Rain = 0
KVP1 172222Z 18011KT 24/02 A2987 RMK A01 T02420024  RH  024%=      5-min Rain = 0
KVP1 172223Z 18011KT 24/03 A2987 RMK A01 T02420025  RH  024%=      5-min Rain = 0
KVP1 172224Z 17010KT 24/03 A2987 RMK A01 T02420027  RH  025%=      5-min Rain = 0
KVP1 172225Z 17012KT 24/03 A2987 RMK A01 T02410028  RH  025%=      5-min Rain = 0
KVP1 172226Z 17013KT 24/03 A2987 RMK A01 T02410026  RH  024%=      5-min Rain = 0
KVP1 172227Z 17012KT 24/03 A2987 RMK A01 T02400025  RH  024%=      5-min Rain = 0
KVP1 172228Z 17012KT 24/03 A2987 RMK A01 T02400026  RH  025%=      5-min Rain = 0
KVP1 172229Z 17014KT 24/03 A2987 RMK A01 T02400028  RH  025%=      5-min Rain = 0
KVP1 172230Z 18016KT 24/03 A2987 RMK A01 T02420027  RH  024%=      5-min Rain = 0
KVP1 172231Z 18014KT 25/03 A2987 RMK A01 T02450028  RH  024%=      5-min Rain = 0
KVP1 172232Z 17013KT 25/03 A2987 RMK A01 T02460031  RH  025%=      5-min Rain = 0
KVP1 172233Z 17012KT 25/03 A2987 RMK A01 T02470031  RH  025%=      5-min Rain = 0
KVP1 172234Z 17013KT 25/03 A2987 RMK A01 T02490031  RH  024%=      5-min Rain = 0
KVP1 172235Z 17012KT 25/03 A2987 RMK A01 T02500032  RH  024%=      5-min Rain = 0
KVP1 172236Z 17011KT 25/04 A2987 RMK A01 T02510035  RH  025%=      5-min Rain = 0
KVP1 172237Z 17012KT 25/04 A2987 RMK A01 T02520035  RH  025%=      5-min Rain = 0
KVP1 172238Z 18011KT 25/04 A2987 RMK A01 T02520036  RH  025%=      5-min Rain = 0
KVP1 172239Z 18014KT 25/03 A2987 RMK A01 T02530034  RH  024%=      5-min Rain = 0
KVP1 172240Z 18013KT 25/03 A2986 RMK A01 T02530033  RH  024%=      5-min Rain = 0
KVP1 172241Z 18013KT 25/03 A2986 RMK A01 T02530034  RH  024%=      5-min Rain = 0
KVP1 172242Z 17012KT 25/03 A2986 RMK A01 T02530032  RH  024%=      5-min Rain = 0
KVP1 172243Z 17014KT 25/03 A2986 RMK A01 T02530034  RH  024%=      5-min Rain = 0
KVP1 172244Z 18015KT 25/03 A2986 RMK A01 T02520030  RH  024%=      5-min Rain = 0
KVP1 172245Z 17014KT 25/03 A2986 RMK A01 T02510029  RH  024%=      5-min Rain = 0
KVP1 172246Z 17016KT 25/03 A2986 RMK A01 T02500031  RH  024%=      5-min Rain = 0
KVP1 172247Z 17013KT 25/03 A2986 RMK A01 T02480030  RH  024%=      5-min Rain = 0
KVP1 172248Z 17014KT 25/03 A2986 RMK A01 T02470032  RH  025%=      5-min Rain = 0
KVP1 172249Z 17014G19KT 25/03 A2986 RMK A01 T02460029  RH  024%=      5-min Rain = 0
KVP1 172250Z 17014KT 25/03 A2986 RMK A01 T02450029  RH  024%=      5-min Rain = 0
KVP1 172251Z 17012KT 25/03 A2986 RMK A01 T02450029  RH  025%=      5-min Rain = 0
KVP1 172252Z 17011KT 24/03 A2986 RMK A01 T02440032  RH  025%=      5-min Rain = 0
KVP1 172253Z 17011KT 24/03 A2986 RMK A01 T02440033  RH  025%=      5-min Rain = 0
KVP1 172254Z 17013KT 24/03 A2986 RMK A01 T02430034  RH  026%=      5-min Rain = 0
KVP1 172255Z 17013KT 24/03 A2986 RMK A01 T02430030  RH  025%=      5-min Rain = 0
KVP1 172256Z 16012KT 24/03 A2986 RMK A01 T02430032  RH  025%=      5-min Rain = 0
KVP1 172257Z 16013KT 24/03 A2986 RMK A01 T02420031  RH  025%=      5-min Rain = 0
KVP1 172258Z 16013KT 24/03 A2986 RMK A01 T02410030  RH  025%=      5-min Rain = 0
KVP1 172259Z 17013KT 24/03 A2986 RMK A01 T02390029  RH  025%=      5-min Rain = 0
KVP1 172300Z 17011KT 24/03 A2986 RMK A01 T02390032  RH  026%=      5-min Rain = 0
KVP1 172301Z 16013KT 24/03 A2986 RMK A01 T02380030  RH  026%=      5-min Rain = 0
KVP1 172302Z 16012KT 24/03 A2986 RMK A01 T02380030  RH  026%=      5-min Rain = 0
KVP1 172303Z 16014KT 24/03 A2985 RMK A01 T02380027  RH  025%=      5-min Rain = 0
KVP1 172304Z 16013KT 24/03 A2985 RMK A01 T02380028  RH  025%=      5-min Rain = 0
KVP1 172305Z 17011KT 24/03 A2985 RMK A01 T02390030  RH  026%=      5-min Rain = 0
KVP1 172306Z 16011KT 24/03 A2985 RMK A01 T02390032  RH  026%=      5-min Rain = 0
KVP1 172307Z 16013KT 24/03 A2985 RMK A01 T02380032  RH  026%=      5-min Rain = 0
KVP1 172308Z 16011KT 24/03 A2985 RMK A01 T02380032  RH  026%=      5-min Rain = 0
KVP1 172309Z 16013KT 24/03 A2985 RMK A01 T02370032  RH  026%=      5-min Rain = 0
KVP1 172310Z 17011KT 24/03 A2985 RMK A01 T02370032  RH  026%=      5-min Rain = 0
KVP1 172311Z 17012KT 24/03 A2985 RMK A01 T02370032  RH  026%=      5-min Rain = 0
KVP1 172312Z 17013KT 24/03 A2985 RMK A01 T02370031  RH  026%=      5-min Rain = 0
KVP1 172313Z 17013KT 24/03 A2985 RMK A01 T02370032  RH  026%=      5-min Rain = 0
KVP1 172314Z 17013KT 24/03 A2985 RMK A01 T02370031  RH  026%=      5-min Rain = 0
KVP1 172315Z 17012KT 24/03 A2985 RMK A01 T02380031  RH  026%=      5-min Rain = 0
KVP1 172316Z 17012KT 24/03 A2985 RMK A01 T02370032  RH  026%=      5-min Rain = 0
KVP1 172317Z 17013KT 24/03 A2985 RMK A01 T02380032  RH  026%=      5-min Rain = 0
KVP1 172318Z 17013KT 24/03 A2985 RMK A01 T02370031  RH  026%=      5-min Rain = 0
KVP1 172319Z 17014KT 24/03 A2985 RMK A01 T02370031  RH  026%=      5-min Rain = 0
KVP1 172320Z 17013KT 24/03 A2985 RMK A01 T02370030  RH  026%=      5-min Rain = 0
KVP1 172321Z 17015KT 24/03 A2985 RMK A01 T02370030  RH  026%=      5-min Rain = 0
KVP1 172322Z 17013KT 24/03 A2985 RMK A01 T02360029  RH  026%=      5-min Rain = 0
KVP1 172323Z 17013KT 24/03 A2985 RMK A01 T02350030  RH  026%=      5-min Rain = 0
KVP1 172324Z 17014KT 23/03 A2985 RMK A01 T02340030  RH  026%=      5-min Rain = 0
KVP1 172325Z 17014KT 23/03 A2985 RMK A01 T02330031  RH  027%=      5-min Rain = 0
KVP1 172326Z 17013KT 23/03 A2985 RMK A01 T02320032  RH  027%=      5-min Rain = 0
KVP1 172327Z 17012KT 23/03 A2985 RMK A01 T02300032  RH  027%=      5-min Rain = 0
KVP1 172328Z 18012KT 23/03 A2985 RMK A01 T02290033  RH  028%=      5-min Rain = 0
KVP1 172329Z 17014KT 23/03 A2985 RMK A01 T02280032  RH  028%=      5-min Rain = 0
KVP1 172330Z 17012KT 23/03 A2985 RMK A01 T02280033  RH  028%=      5-min Rain = 0
KVP1 172331Z 17012KT 23/03 A2985 RMK A01 T02270033  RH  028%=      5-min Rain = 0
KVP1 172332Z 17012KT 23/03 A2985 RMK A01 T02270033  RH  028%=      5-min Rain = 0
KVP1 172333Z 17013KT 23/03 A2985 RMK A01 T02260033  RH  028%=      5-min Rain = 0
KVP1 172334Z 17012KT 23/03 A2985 RMK A01 T02260032  RH  028%=      5-min Rain = 0
KVP1 172335Z 17013KT 23/03 A2985 RMK A01 T02260033  RH  028%=      5-min Rain = 0
KVP1 172336Z 17011KT 23/03 A2985 RMK A01 T02260034  RH  028%=      5-min Rain = 0
KVP1 172337Z 17011KT 23/03 A2985 RMK A01 T02260034  RH  028%=      5-min Rain = 0
KVP1 172338Z 17012KT 23/03 A2985 RMK A01 T02250034  RH  029%=      5-min Rain = 0
KVP1 172339Z 17011KT 23/03 A2985 RMK A01 T02250034  RH  029%=      5-min Rain = 0
KVP1 172340Z 17012KT 23/03 A2985 RMK A01 T02250034  RH  029%=      5-min Rain = 0
KVP1 172341Z 17011KT 23/03 A2985 RMK A01 T02250034  RH  029%=      5-min Rain = 0
KVP1 172342Z 17010KT 22/04 A2985 RMK A01 T02240035  RH  029%=      5-min Rain = 0
KVP1 172343Z 17011KT 22/04 A2985 RMK A01 T02230036  RH  029%=      5-min Rain = 0
KVP1 172344Z 17011KT 22/04 A2985 RMK A01 T02210035  RH  030%=      5-min Rain = 0
KVP1 172345Z 17010KT 22/04 A2985 RMK A01 T02200036  RH  030%=      5-min Rain = 0
KVP1 172346Z 17010G15KT 22/04 A2985 RMK A01 T02190036  RH  030%=      5-min Rain = 0
KVP1 172347Z 17011KT 22/04 A2985 RMK A01 T02190036  RH  030%=      5-min Rain = 0
KVP1 172348Z 17011KT 22/04 A2985 RMK A01 T02180036  RH  030%=      5-min Rain = 0
KVP1 172349Z 17010KT 22/04 A2985 RMK A01 T02170036  RH  031%=      5-min Rain = 0
KVP1 172350Z 17010KT 22/04 A2985 RMK A01 T02160037  RH  031%=      5-min Rain = 0
KVP1 172351Z 17011KT 22/04 A2985 RMK A01 T02150037  RH  031%=      5-min Rain = 0
KVP1 172352Z 17010KT 21/04 A2985 RMK A01 T02140037  RH  031%=      5-min Rain = 0
KVP1 172353Z 17010KT 21/04 A2985 RMK A01 T02130037  RH  031%=      5-min Rain = 0
KVP1 172354Z 17009KT 21/04 A2985 RMK A01 T02120037  RH  032%=      5-min Rain = 0
KVP1 172355Z 17009KT 21/04 A2985 RMK A01 T02110038  RH  032%=      5-min Rain = 0
KVP1 172356Z 17010KT 21/04 A2985 RMK A01 T02100037  RH  032%=      5-min Rain = 0
KVP1 172357Z 17010KT 21/04 A2985 RMK A01 T02100037  RH  032%=      5-min Rain = 0
KVP1 172358Z 17010KT 21/04 A2985 RMK A01 T02100037  RH  032%=      5-min Rain = 0
KVP1 172359Z 16010KT 21/04 A2985 RMK A01 T02100038  RH  032%=      5-min Rain = 0
KVP1 180000Z 16010KT 21/04 A2985 RMK A01 T02090038  RH  032%=      5-min Rain = 0
KVP1 180001Z 16010KT 21/04 A2985 RMK A01 T02080038  RH  033%=      5-min Rain = 0
KVP1 180002Z 17010KT 21/04 A2985 RMK A01 T02080038  RH  033%=      5-min Rain = 0
KVP1 180003Z 16010KT 21/04 A2985 RMK A01 T02080039  RH  033%=      5-min Rain = 0
KVP1 180004Z 17010KT 21/04 A2985 RMK A01 T02070038  RH  033%=      5-min Rain = 0
KVP1 180005Z 16010KT 21/04 A2985 RMK A01 T02070038  RH  033%=      5-min Rain = 0
KVP1 180006Z 16010KT 21/04 A2984 RMK A01 T02060039  RH  033%=      5-min Rain = 0
KVP1 180007Z 16009KT 21/04 A2984 RMK A01 T02050040  RH  034%=      5-min Rain = 0
KVP1 180008Z 16009KT 20/04 A2984 RMK A01 T02040040  RH  034%=      5-min Rain = 0
KVP1 180009Z 16009KT 20/04 A2984 RMK A01 T02030040  RH  034%=      5-min Rain = 0
KVP1 180010Z 16009KT 20/04 A2984 RMK A01 T02020040  RH  034%=      5-min Rain = 0
KVP1 180011Z 16009KT 20/04 A2984 RMK A01 T02010040  RH  035%=      5-min Rain = 0
KVP1 180012Z 16010KT 20/04 A2984 RMK A01 T02000040  RH  035%=      5-min Rain = 0
KVP1 180013Z 16009KT 20/04 A2984 RMK A01 T01990040  RH  035%=      5-min Rain = 0
KVP1 180014Z 16009KT 20/04 A2984 RMK A01 T01980040  RH  035%=      5-min Rain = 0
KVP1 180015Z 16009KT 20/04 A2984 RMK A01 T01980040  RH  035%=      5-min Rain = 0
KVP1 180016Z 16010KT 20/04 A2984 RMK A01 T01980040  RH  035%=      5-min Rain = 0
KVP1 180017Z 16010KT 20/04 A2984 RMK A01 T01970040  RH  035%=      5-min Rain = 0
KVP1 180018Z 16009KT 20/04 A2984 RMK A01 T01970040  RH  036%=      5-min Rain = 0
KVP1 180019Z 16009KT 20/04 A2984 RMK A01 T01970041  RH  036%=      5-min Rain = 0
KVP1 180020Z 16009KT 20/04 A2984 RMK A01 T01960041  RH  036%=      5-min Rain = 0
KVP1 180021Z 16010KT 20/04 A2984 RMK A01 T01950041  RH  036%=      5-min Rain = 0
KVP1 180022Z 16010KT 20/04 A2984 RMK A01 T01950041  RH  036%=      5-min Rain = 0
KVP1 180023Z 16010KT 19/04 A2984 RMK A01 T01940041  RH  036%=      5-min Rain = 0
KVP1 180024Z 16010KT 19/04 A2984 RMK A01 T01940041  RH  036%=      5-min Rain = 0
KVP1 180025Z 16010KT 19/04 A2984 RMK A01 T01940041  RH  036%=      5-min Rain = 0
KVP1 180026Z 16010KT 19/04 A2984 RMK A01 T01940041  RH  036%=      5-min Rain = 0
KVP1 180027Z 16011KT 19/04 A2984 RMK A01 T01930041  RH  037%=      5-min Rain = 0
KVP1 180028Z 16010KT 19/04 A2984 RMK A01 T01930041  RH  037%=      5-min Rain = 0
KVP1 180029Z 16010KT 19/04 A2984 RMK A01 T01930041  RH  037%=      5-min Rain = 0
KVP1 180030Z 16011KT 19/04 A2984 RMK A01 T01930041  RH  037%=      5-min Rain = 0
KVP1 180031Z 16010KT 19/04 A2984 RMK A01 T01930041  RH  037%=      5-min Rain = 0
KVP1 180032Z 16011KT 19/04 A2984 RMK A01 T01920041  RH  037%=      5-min Rain = 0
KVP1 180033Z 16010KT 19/04 A2984 RMK A01 T01920041  RH  037%=      5-min Rain = 0
KVP1 180034Z 16011KT 19/04 A2984 RMK A01 T01920041  RH  037%=      5-min Rain = 0
KVP1 180035Z 16012KT 19/04 A2984 RMK A01 T01920041  RH  037%=      5-min Rain = 0
KVP1 180036Z 16011KT 19/04 A2984 RMK A01 T01920041  RH  037%=      5-min Rain = 0
KVP1 180037Z 16011KT 19/04 A2984 RMK A01 T01920041  RH  037%=      5-min Rain = 0
KVP1 180038Z 16011KT 19/04 A2984 RMK A01 T01920041  RH  037%=      5-min Rain = 0
KVP1 180039Z 16011KT 19/04 A2984 RMK A01 T01920041  RH  037%=      5-min Rain = 0
KVP1 180040Z 16010KT 19/04 A2984 RMK A01 T01920041  RH  037%=      5-min Rain = 0
KVP1 180041Z 16011KT 19/04 A2984 RMK A01 T01910040  RH  037%=      5-min Rain = 0
KVP1 180042Z 16011KT 19/04 A2984 RMK A01 T01910040  RH  037%=      5-min Rain = 0
KVP1 180043Z 16010KT 19/04 A2984 RMK A01 T01910040  RH  037%=      5-min Rain = 0
KVP1 180044Z 16010KT 19/04 A2984 RMK A01 T01900040  RH  037%=      5-min Rain = 0
KVP1 180045Z 16010KT 19/04 A2984 RMK A01 T01900040  RH  037%=      5-min Rain = 0
KVP1 180046Z 16011KT 19/04 A2984 RMK A01 T01900040  RH  037%=      5-min Rain = 0
KVP1 180047Z 16010KT 19/04 A2984 RMK A01 T01890040  RH  037%=      5-min Rain = 0
KVP1 180048Z 16010KT 19/04 A2984 RMK A01 T01880040  RH  037%=      5-min Rain = 0
KVP1 180049Z 16010KT 19/04 A2984 RMK A01 T01880040  RH  038%=      5-min Rain = 0
KVP1 180050Z 16010KT 19/04 A2984 RMK A01 T01880040  RH  038%=      5-min Rain = 0
KVP1 180051Z 15011KT 19/04 A2984 RMK A01 T01880040  RH  038%=      5-min Rain = 0
KVP1 180052Z 16011KT 19/04 A2984 RMK A01 T01870041  RH  038%=      5-min Rain = 0
KVP1 180053Z 15010KT 19/04 A2984 RMK A01 T01860041  RH  038%=      5-min Rain = 0
KVP1 180054Z 15011KT 19/04 A2984 RMK A01 T01860041  RH  038%=      5-min Rain = 0
KVP1 180055Z 15011KT 19/04 A2984 RMK A01 T01860041  RH  038%=      5-min Rain = 0
KVP1 180056Z 15011KT 19/04 A2984 RMK A01 T01850041  RH  038%=      5-min Rain = 0
KVP1 180057Z 15011KT 19/04 A2984 RMK A01 T01850041  RH  038%=      5-min Rain = 0
KVP1 180058Z 15011KT 18/04 A2984 RMK A01 T01840041  RH  039%=      5-min Rain = 0
KVP1 180059Z 15011KT 18/04 A2984 RMK A01 T01840041  RH  039%=      5-min Rain = 0
KVP1 180100Z 16010KT 18/04 A2984 RMK A01 T01830041  RH  039%=      5-min Rain = 0
KVP1 180101Z 15011KT 18/04 A2984 RMK A01 T01830041  RH  039%=      5-min Rain = 0
KVP1 180102Z 16011KT 18/04 A2984 RMK A01 T01830041  RH  039%=      5-min Rain = 0
KVP1 180103Z 15011KT 18/04 A2984 RMK A01 T01820040  RH  039%=      5-min Rain = 0
KVP1 180104Z 15011KT 18/04 A2984 RMK A01 T01820041  RH  039%=      5-min Rain = 0
KVP1 180105Z 15011KT 18/04 A2984 RMK A01 T01820041  RH  039%=      5-min Rain = 0
KVP1 180106Z 15011KT 18/04 A2984 RMK A01 T01820040  RH  039%=      5-min Rain = 0
KVP1 180107Z 15011KT 18/04 A2984 RMK A01 T01820041  RH  039%=      5-min Rain = 0
KVP1 180108Z 15011KT 18/04 A2984 RMK A01 T01820041  RH  039%=      5-min Rain = 0
KVP1 180109Z 15011KT 18/04 A2984 RMK A01 T01820041  RH  039%=      5-min Rain = 0
KVP1 180110Z 15011KT 18/04 A2984 RMK A01 T01820041  RH  039%=      5-min Rain = 0
KVP1 180111Z 15012KT 18/04 A2984 RMK A01 T01820042  RH  039%=      5-min Rain = 0
KVP1 180112Z 16011KT 18/04 A2984 RMK A01 T01810041  RH  039%=      5-min Rain = 0
KVP1 180113Z 16011KT 18/04 A2984 RMK A01 T01810042  RH  040%=      5-min Rain = 0
KVP1 180114Z 16011KT 18/04 A2984 RMK A01 T01810042  RH  040%=      5-min Rain = 0
KVP1 180115Z 16012KT 18/04 A2984 RMK A01 T01820041  RH  039%=      5-min Rain = 0
KVP1 180116Z 16012KT 18/04 A2984 RMK A01 T01820041  RH  039%=      5-min Rain = 0
KVP1 180117Z 16012KT 18/04 A2984 RMK A01 T01830042  RH  039%=      5-min Rain = 0
KVP1 180118Z 16012KT 18/04 A2984 RMK A01 T01820042  RH  039%=      5-min Rain = 0
KVP1 180119Z 16011KT 18/04 A2984 RMK A01 T01830042  RH  039%=      5-min Rain = 0
KVP1 180120Z 15011KT 18/04 A2984 RMK A01 T01820042  RH  039%=      5-min Rain = 0
KVP1 180121Z 16011KT 18/04 A2984 RMK A01 T01830043  RH  039%=      5-min Rain = 0
KVP1 180122Z 16011KT 18/04 A2984 RMK A01 T01820042  RH  040%=      5-min Rain = 0
KVP1 180123Z 15011KT 18/04 A2984 RMK A01 T01820042  RH  040%=      5-min Rain = 0
KVP1 180124Z 15011KT 18/04 A2984 RMK A01 T01810043  RH  040%=      5-min Rain = 0
KVP1 180125Z 15011KT 18/04 A2984 RMK A01 T01800042  RH  040%=      5-min Rain = 0
KVP1 180126Z 15011KT 18/04 A2984 RMK A01 T01790043  RH  040%=      5-min Rain = 0
KVP1 180127Z 15011KT 18/04 A2984 RMK A01 T01780043  RH  041%=      5-min Rain = 0
KVP1 180128Z 15011KT 18/04 A2984 RMK A01 T01770043  RH  041%=      5-min Rain = 0
KVP1 180129Z 15012KT 18/04 A2984 RMK A01 T01760043  RH  041%=      5-min Rain = 0
KVP1 180130Z 15012KT 18/04 A2984 RMK A01 T01760043  RH  041%=      5-min Rain = 0
KVP1 180131Z 15011KT 18/04 A2984 RMK A01 T01760044  RH  041%=      5-min Rain = 0
KVP1 180132Z 15012KT 18/04 A2984 RMK A01 T01760043  RH  041%=      5-min Rain = 0
KVP1 180133Z 15010KT 18/04 A2984 RMK A01 T01760043  RH  041%=      5-min Rain = 0
KVP1 180134Z 15010KT 18/04 A2984 RMK A01 T01760044  RH  042%=      5-min Rain = 0
KVP1 180135Z 15009KT 17/04 A2984 RMK A01 T01740044  RH  042%=      5-min Rain = 0
KVP1 180136Z 16011KT 17/04 A2984 RMK A01 T01730044  RH  042%=      5-min Rain = 0
KVP1 180137Z 15010KT 17/04 A2984 RMK A01 T01730044  RH  042%=      5-min Rain = 0
KVP1 180138Z 16010KT 17/04 A2984 RMK A01 T01730044  RH  043%=      5-min Rain = 0
KVP1 180139Z 16010KT 17/05 A2984 RMK A01 T01720045  RH  043%=      5-min Rain = 0
KVP1 180140Z 16010KT 17/05 A2984 RMK A01 T01720045  RH  043%=      5-min Rain = 0
KVP1 180141Z 16010KT 17/05 A2984 RMK A01 T01720045  RH  043%=      5-min Rain = 0
KVP1 180142Z 16010KT 17/05 A2984 RMK A01 T01720045  RH  043%=      5-min Rain = 0
KVP1 180143Z 15010KT 17/05 A2984 RMK A01 T01720045  RH  043%=      5-min Rain = 0
KVP1 180144Z 16010KT 17/05 A2984 RMK A01 T01720045  RH  043%=      5-min Rain = 0
KVP1 180145Z 16010KT 17/05 A2984 RMK A01 T01710046  RH  043%=      5-min Rain = 0
KVP1 180146Z 16010KT 17/05 A2984 RMK A01 T01710046  RH  043%=      5-min Rain = 0
KVP1 180147Z 16010KT 17/05 A2984 RMK A01 T01710046  RH  043%=      5-min Rain = 0
KVP1 180148Z 16010KT 17/05 A2984 RMK A01 T01710047  RH  044%=      5-min Rain = 0
KVP1 180149Z 16010KT 17/05 A2984 RMK A01 T01710047  RH  044%=      5-min Rain = 0
KVP1 180150Z 16010KT 17/05 A2984 RMK A01 T01720047  RH  044%=      5-min Rain = 0
KVP1 180151Z 16011KT 17/05 A2984 RMK A01 T01710047  RH  044%=      5-min Rain = 0
KVP1 180152Z 16010KT 17/05 A2984 RMK A01 T01720048  RH  044%=      5-min Rain = 0
KVP1 180153Z 16010KT 17/05 A2984 RMK A01 T01730048  RH  044%=      5-min Rain = 0
KVP1 180154Z 16010KT 17/05 A2984 RMK A01 T01730049  RH  044%=      5-min Rain = 0
KVP1 180155Z 16010KT 17/05 A2984 RMK A01 T01730049  RH  044%=      5-min Rain = 0
KVP1 180156Z 16011KT 17/05 A2984 RMK A01 T01740049  RH  044%=      5-min Rain = 0
KVP1 180157Z 16010KT 17/05 A2984 RMK A01 T01740050  RH  044%=      5-min Rain = 0
KVP1 180158Z 16010KT 18/05 A2984 RMK A01 T01750050  RH  044%=      5-min Rain = 0
KVP1 180159Z 16009KT 17/05 A2984 RMK A01 T01740050  RH  044%=      5-min Rain = 0
KVP1 180200Z 16009KT 17/05 A2984 RMK A01 T01740051  RH  044%=      5-min Rain = 0
KVP1 180201Z 16010KT 17/05 A2985 RMK A01 T01740051  RH  044%=      5-min Rain = 0
KVP1 180202Z 17009KT 17/05 A2985 RMK A01 T01730051  RH  044%=      5-min Rain = 0
KVP1 180203Z 17009KT 17/05 A2985 RMK A01 T01730051  RH  045%=      5-min Rain = 0
KVP1 180204Z 17009KT 17/05 A2985 RMK A01 T01730051  RH  045%=      5-min Rain = 0
KVP1 180205Z 17009KT 17/05 A2985 RMK A01 T01730051  RH  045%=      5-min Rain = 0
KVP1 180206Z 17009KT 17/05 A2985 RMK A01 T01730052  RH  045%=      5-min Rain = 0
KVP1 180207Z 17009KT 17/05 A2985 RMK A01 T01720052  RH  045%=      5-min Rain = 0
KVP1 180208Z 17010KT 17/05 A2985 RMK A01 T01720052  RH  045%=      5-min Rain = 0
KVP1 180209Z 17010KT 17/05 A2985 RMK A01 T01720052  RH  045%=      5-min Rain = 0
KVP1 180210Z 17011KT 17/05 A2985 RMK A01 T01720053  RH  045%=      5-min Rain = 0
KVP1 180211Z 17010KT 17/05 A2985 RMK A01 T01720053  RH  045%=      5-min Rain = 0
KVP1 180212Z 17011KT 17/05 A2985 RMK A01 T01730053  RH  045%=      5-min Rain = 0
KVP1 180213Z 16010KT 17/05 A2985 RMK A01 T01720053  RH  045%=      5-min Rain = 0
KVP1 180214Z 16010KT 17/05 A2985 RMK A01 T01720053  RH  045%=      5-min Rain = 0
KVP1 180215Z 17010KT 17/05 A2985 RMK A01 T01720054  RH  045%=      5-min Rain = 0
KVP1 180216Z 16010KT 17/05 A2985 RMK A01 T01730054  RH  045%=      5-min Rain = 0
KVP1 180217Z 17010KT 17/05 A2985 RMK A01 T01730054  RH  045%=      5-min Rain = 0
KVP1 180218Z 16010KT 17/05 A2985 RMK A01 T01730054  RH  045%=      5-min Rain = 0
KVP1 180219Z 17010KT 17/05 A2985 RMK A01 T01730054  RH  045%=      5-min Rain = 0
KVP1 180220Z 17010KT 17/05 A2985 RMK A01 T01730054  RH  046%=      5-min Rain = 0
KVP1 180221Z 16011KT 17/05 A2985 RMK A01 T01730054  RH  046%=      5-min Rain = 0
KVP1 180222Z 16010KT 17/05 A2985 RMK A01 T01720054  RH  046%=      5-min Rain = 0
KVP1 180223Z 17010KT 17/05 A2985 RMK A01 T01720054  RH  046%=      5-min Rain = 0
KVP1 180224Z 17010KT 17/05 A2985 RMK A01 T01720054  RH  046%=      5-min Rain = 0
KVP1 180225Z 16009KT 17/06 A2985 RMK A01 T01720055  RH  046%=      5-min Rain = 0
KVP1 180226Z 17010KT 17/06 A2985 RMK A01 T01710055  RH  046%=      5-min Rain = 0
KVP1 180227Z 16010KT 17/06 A2985 RMK A01 T01700055  RH  046%=      5-min Rain = 0
KVP1 180228Z 16010KT 17/06 A2985 RMK A01 T01700055  RH  047%=      5-min Rain = 0
KVP1 180229Z 16010KT 17/06 A2985 RMK A01 T01690055  RH  047%=      5-min Rain = 0
KVP1 180230Z 16010KT 17/06 A2985 RMK A01 T01690055  RH  047%=      5-min Rain = 0
KVP1 180231Z 16009KT 17/06 A2985 RMK A01 T01680055  RH  047%=      5-min Rain = 0
KVP1 180232Z 16009KT 17/06 A2985 RMK A01 T01670055  RH  047%=      5-min Rain = 0
KVP1 180233Z 16009KT 17/05 A2985 RMK A01 T01660054  RH  048%=      5-min Rain = 0
KVP1 180234Z 16009KT 17/05 A2985 RMK A01 T01660054  RH  048%=      5-min Rain = 0
KVP1 180235Z 16010KT 17/05 A2985 RMK A01 T01650054  RH  048%=      5-min Rain = 0
KVP1 180236Z 16009KT 16/05 A2985 RMK A01 T01640054  RH  048%=      5-min Rain = 0
KVP1 180237Z 16009KT 16/05 A2985 RMK A01 T01630054  RH  048%=      5-min Rain = 0
KVP1 180238Z 16009KT 16/05 A2985 RMK A01 T01630054  RH  049%=      5-min Rain = 0
KVP1 180239Z 16009KT 16/05 A2985 RMK A01 T01620054  RH  049%=      5-min Rain = 0
KVP1 180240Z 16009KT 16/05 A2985 RMK A01 T01620054  RH  049%=      5-min Rain = 0
KVP1 180241Z 16009KT 16/05 A2985 RMK A01 T01610054  RH  049%=      5-min Rain = 0
KVP1 180242Z 16008KT 16/05 A2985 RMK A01 T01610054  RH  049%=      5-min Rain = 0
KVP1 180243Z 16009KT 16/05 A2985 RMK A01 T01600054  RH  050%=      5-min Rain = 0
KVP1 180244Z 16009KT 16/05 A2985 RMK A01 T01590054  RH  050%=      5-min Rain = 0
KVP1 180245Z 16009KT 16/05 A2985 RMK A01 T01580054  RH  050%=      5-min Rain = 0
KVP1 180246Z 16009KT 16/06 A2985 RMK A01 T01570055  RH  050%=      5-min Rain = 0
KVP1 180247Z 17008KT 16/06 A2985 RMK A01 T01570055  RH  051%=      5-min Rain = 0
KVP1 180248Z 17008KT 16/06 A2985 RMK A01 T01560055  RH  051%=      5-min Rain = 0
KVP1 180249Z 17008KT 16/06 A2985 RMK A01 T01550055  RH  051%=      5-min Rain = 0
KVP1 180250Z 17008KT 16/06 A2985 RMK A01 T01550055  RH  051%=      5-min Rain = 0
KVP1 180251Z 17009KT 16/06 A2985 RMK A01 T01550056  RH  052%=      5-min Rain = 0
KVP1 180252Z 17008KT 16/06 A2985 RMK A01 T01550056  RH  052%=      5-min Rain = 0
KVP1 180253Z 17008KT 15/06 A2985 RMK A01 T01540056  RH  052%=      5-min Rain = 0
KVP1 180254Z 17008KT 15/06 A2985 RMK A01 T01540056  RH  052%=      5-min Rain = 0
KVP1 180255Z 17008KT 15/06 A2985 RMK A01 T01530057  RH  052%=      5-min Rain = 0
KVP1 180256Z 17008KT 15/06 A2985 RMK A01 T01520056  RH  053%=      5-min Rain = 0
KVP1 180257Z 17008KT 15/06 A2985 RMK A01 T01520056  RH  053%=      5-min Rain = 0
KVP1 180258Z 17008KT 15/06 A2985 RMK A01 T01520056  RH  053%=      5-min Rain = 0
KVP1 180259Z 17009KT 15/06 A2985 RMK A01 T01520057  RH  053%=      5-min Rain = 0
KVP1 180300Z 17009KT 15/06 A2985 RMK A01 T01520057  RH  053%=      5-min Rain = 0
KVP1 180301Z 16009KT 15/06 A2985 RMK A01 T01520057  RH  053%=      5-min Rain = 0
KVP1 180302Z 17010KT 15/06 A2985 RMK A01 T01510057  RH  053%=      5-min Rain = 0
KVP1 180303Z 16009KT 15/06 A2985 RMK A01 T01510057  RH  053%=      5-min Rain = 0
KVP1 180304Z 17009KT 15/06 A2985 RMK A01 T01510057  RH  053%=      5-min Rain = 0
KVP1 180305Z 17009KT 15/06 A2985 RMK A01 T01510057  RH  053%=      5-min Rain = 0
KVP1 180306Z 17009KT 15/06 A2985 RMK A01 T01520058  RH  053%=      5-min Rain = 0
KVP1 180307Z 17009KT 15/06 A2985 RMK A01 T01530058  RH  053%=      5-min Rain = 0
KVP1 180308Z 17009KT 15/06 A2985 RMK A01 T01530058  RH  053%=      5-min Rain = 0
KVP1 180309Z 17010KT 15/06 A2985 RMK A01 T01530058  RH  053%=      5-min Rain = 0
KVP1 180310Z 17009KT 15/06 A2985 RMK A01 T01520059  RH  054%=      5-min Rain = 0
KVP1 180311Z 16009KT 15/06 A2985 RMK A01 T01520059  RH  054%=      5-min Rain = 0
KVP1 180312Z 16009KT 15/06 A2985 RMK A01 T01520059  RH  054%=      5-min Rain = 0
KVP1 180313Z 17009KT 15/06 A2985 RMK A01 T01510059  RH  054%=      5-min Rain = 0
KVP1 180314Z 17009KT 15/06 A2985 RMK A01 T01510059  RH  054%=      5-min Rain = 0
KVP1 180315Z 16009KT 15/06 A2985 RMK A01 T01500059  RH  054%=      5-min Rain = 0
KVP1 180316Z 16008KT 15/06 A2985 RMK A01 T01500059  RH  055%=      5-min Rain = 0
KVP1 180317Z 16008KT 15/06 A2985 RMK A01 T01480059  RH  055%=      5-min Rain = 0
KVP1 180318Z 16008KT 15/06 A2985 RMK A01 T01470060  RH  056%=      5-min Rain = 0
KVP1 180319Z 16008KT 15/06 A2985 RMK A01 T01460059  RH  056%=      5-min Rain = 0
KVP1 180320Z 16009KT 15/06 A2985 RMK A01 T01450060  RH  056%=      5-min Rain = 0
KVP1 180321Z 16009KT 14/06 A2985 RMK A01 T01440060  RH  057%=      5-min Rain = 0
KVP1 180322Z 16009KT 14/06 A2985 RMK A01 T01440060  RH  057%=      5-min Rain = 0
KVP1 180323Z 16009KT 14/06 A2985 RMK A01 T01440060  RH  057%=      5-min Rain = 0
KVP1 180324Z 16009KT 14/06 A2985 RMK A01 T01430060  RH  057%=      5-min Rain = 0
KVP1 180325Z 16009KT 14/06 A2985 RMK A01 T01430060  RH  058%=      5-min Rain = 0
KVP1 180326Z 16010KT 14/06 A2985 RMK A01 T01420060  RH  058%=      5-min Rain = 0
KVP1 180327Z 16009KT 14/06 A2985 RMK A01 T01420060  RH  058%=      5-min Rain = 0
KVP1 180328Z 16010KT 14/06 A2985 RMK A01 T01420061  RH  058%=      5-min Rain = 0
KVP1 180329Z 16010KT 14/06 A2985 RMK A01 T01420061  RH  058%=      5-min Rain = 0
KVP1 180330Z 16009KT 14/06 A2985 RMK A01 T01420061  RH  058%=      5-min Rain = 0
KVP1 180331Z 16009KT 14/06 A2985 RMK A01 T01420061  RH  058%=      5-min Rain = 0
KVP1 180332Z 16009KT 14/06 A2985 RMK A01 T01410061  RH  059%=      5-min Rain = 0
KVP1 180333Z 16009KT 14/06 A2985 RMK A01 T01410061  RH  059%=      5-min Rain = 0
KVP1 180334Z 17010KT 14/06 A2985 RMK A01 T01410062  RH  059%=      5-min Rain = 0
KVP1 180335Z 16009KT 14/06 A2985 RMK A01 T01400061  RH  059%=      5-min Rain = 0
KVP1 180336Z 17009KT 14/06 A2985 RMK A01 T01400061  RH  059%=      5-min Rain = 0
KVP1 180337Z 17009KT 14/06 A2985 RMK A01 T01400061  RH  059%=      5-min Rain = 0
KVP1 180338Z 16009KT 14/06 A2985 RMK A01 T01390061  RH  059%=      5-min Rain = 0
KVP1 180339Z 17010KT 14/06 A2985 RMK A01 T01390061  RH  059%=      5-min Rain = 0
KVP1 180340Z 17009KT 14/06 A2985 RMK A01 T01400061  RH  059%=      5-min Rain = 0
KVP1 180341Z 17010KT 14/06 A2985 RMK A01 T01400061  RH  059%=      5-min Rain = 0
KVP1 180342Z 17010KT 14/06 A2985 RMK A01 T01420061  RH  058%=      5-min Rain = 0
KVP1 180343Z 17009KT 14/06 A2985 RMK A01 T01420061  RH  058%=      5-min Rain = 0
KVP1 180344Z 17010KT 14/06 A2985 RMK A01 T01430062  RH  058%=      5-min Rain = 0
KVP1 180345Z 17010KT 14/06 A2985 RMK A01 T01440061  RH  058%=      5-min Rain = 0
KVP1 180346Z 17009KT 15/06 A2985 RMK A01 T01450062  RH  057%=      5-min Rain = 0
KVP1 180347Z 17009KT 14/06 A2985 RMK A01 T01440062  RH  058%=      5-min Rain = 0
KVP1 180348Z 17009KT 14/06 A2985 RMK A01 T01430062  RH  058%=      5-min Rain = 0
KVP1 180349Z 17010KT 14/06 A2985 RMK A01 T01430062  RH  058%=      5-min Rain = 0
KVP1 180350Z 17010KT 14/06 A2985 RMK A01 T01430062  RH  058%=      5-min Rain = 0
KVP1 180351Z 17009KT 14/06 A2985 RMK A01 T01430062  RH  058%=      5-min Rain = 0
KVP1 180352Z 17010KT 14/06 A2985 RMK A01 T01430062  RH  058%=      5-min Rain = 0
KVP1 180353Z 17009KT 14/06 A2985 RMK A01 T01430062  RH  058%=      5-min Rain = 0
KVP1 180354Z 17011KT 14/06 A2985 RMK A01 T01430063  RH  058%=      5-min Rain = 0
KVP1 180355Z 17010KT 14/06 A2985 RMK A01 T01430063  RH  058%=      5-min Rain = 0
KVP1 180356Z 17010KT 14/06 A2985 RMK A01 T01430063  RH  059%=      5-min Rain = 0
KVP1 180357Z 17010KT 14/06 A2985 RMK A01 T01430063  RH  059%=      5-min Rain = 0
KVP1 180358Z 17010KT 14/06 A2985 RMK A01 T01440063  RH  058%=      5-min Rain = 0
KVP1 180359Z 17011KT 14/06 A2985 RMK A01 T01440063  RH  058%=      5-min Rain = 0
KVP1 180400Z 17010KT 14/06 A2985 RMK A01 T01440063  RH  058%=      5-min Rain = 0
KVP1 180401Z 17010KT 14/06 A2985 RMK A01 T01440063  RH  058%=      5-min Rain = 0
KVP1 180402Z 17010KT 15/06 A2985 RMK A01 T01450063  RH  058%=      5-min Rain = 0
KVP1 180403Z 17010KT 15/06 A2985 RMK A01 T01450064  RH  058%=      5-min Rain = 0
KVP1 180404Z 17012KT 15/06 A2985 RMK A01 T01450063  RH  058%=      5-min Rain = 0
KVP1 180405Z 17010KT 15/06 A2985 RMK A01 T01450063  RH  058%=      5-min Rain = 0
KVP1 180406Z 17010KT 15/06 A2985 RMK A01 T01450063  RH  058%=      5-min Rain = 0
KVP1 180407Z 17010KT 15/06 A2985 RMK A01 T01460064  RH  058%=      5-min Rain = 0
KVP1 180408Z 17009KT 15/06 A2985 RMK A01 T01460064  RH  058%=      5-min Rain = 0
KVP1 180409Z 17010KT 15/06 A2985 RMK A01 T01450064  RH  058%=      5-min Rain = 0
KVP1 180410Z 17011KT 15/06 A2985 RMK A01 T01450064  RH  058%=      5-min Rain = 0
KVP1 180411Z 17010KT 15/06 A2985 RMK A01 T01450064  RH  058%=      5-min Rain = 0
KVP1 180412Z 17010KT 15/06 A2985 RMK A01 T01450064  RH  058%=      5-min Rain = 0
KVP1 180413Z 17010KT 14/06 A2985 RMK A01 T01440064  RH  058%=      5-min Rain = 0
KVP1 180414Z 17010KT 14/06 A2985 RMK A01 T01440064  RH  059%=      5-min Rain = 0
KVP1 180415Z 17010KT 14/06 A2985 RMK A01 T01430064  RH  059%=      5-min Rain = 0
KVP1 180416Z 17011KT 14/06 A2985 RMK A01 T01430064  RH  059%=      5-min Rain = 0
KVP1 180417Z 17010KT 14/06 A2985 RMK A01 T01440064  RH  059%=      5-min Rain = 0
KVP1 180418Z 17011KT 15/07 A2985 RMK A01 T01450065  RH  059%=      5-min Rain = 0
KVP1 180419Z 17010KT 15/07 A2985 RMK A01 T01450065  RH  058%=      5-min Rain = 0
KVP1 180420Z 17011KT 15/06 A2985 RMK A01 T01450064  RH  058%=      5-min Rain = 0
KVP1 180421Z 17011KT 15/07 A2985 RMK A01 T01460065  RH  058%=      5-min Rain = 0
KVP1 180422Z 17010KT 15/07 A2985 RMK A01 T01460065  RH  058%=      5-min Rain = 0
KVP1 180423Z 17011KT 15/07 A2985 RMK A01 T01460065  RH  058%=      5-min Rain = 0
KVP1 180424Z 17012KT 15/07 A2985 RMK A01 T01470065  RH  058%=      5-min Rain = 0
KVP1 180425Z 17013KT 15/07 A2985 RMK A01 T01470065  RH  058%=      5-min Rain = 0
KVP1 180426Z 17011KT 15/07 A2985 RMK A01 T01470065  RH  058%=      5-min Rain = 0
KVP1 180427Z 17011KT 15/07 A2985 RMK A01 T01480065  RH  058%=      5-min Rain = 0
KVP1 180428Z 17012KT 15/07 A2985 RMK A01 T01480065  RH  058%=      5-min Rain = 0
KVP1 180429Z 17012KT 15/07 A2985 RMK A01 T01480065  RH  058%=      5-min Rain = 0
KVP1 180430Z 17012KT 15/07 A2985 RMK A01 T01490065  RH  057%=      5-min Rain = 0
KVP1 180431Z 17013KT 15/07 A2985 RMK A01 T01500065  RH  057%=      5-min Rain = 0
KVP1 180432Z 17014KT 15/07 A2985 RMK A01 T01500065  RH  057%=      5-min Rain = 0
KVP1 180433Z 17013KT 15/07 A2985 RMK A01 T01510065  RH  057%=      5-min Rain = 0
KVP1 180434Z 17013KT 15/07 A2985 RMK A01 T01510065  RH  056%=      5-min Rain = 0
KVP1 180435Z 17013KT 15/07 A2985 RMK A01 T01510065  RH  056%=      5-min Rain = 0
KVP1 180436Z 18013KT 15/07 A2985 RMK A01 T01520065  RH  056%=      5-min Rain = 0
KVP1 180437Z 17014KT 15/07 A2985 RMK A01 T01510065  RH  056%=      5-min Rain = 0
KVP1 180438Z 17013KT 15/07 A2985 RMK A01 T01520065  RH  056%=      5-min Rain = 0
KVP1 180439Z 17014G19KT 15/07 A2985 RMK A01 T01520065  RH  056%=      5-min Rain = 0
KVP1 180440Z 17015KT 15/07 A2985 RMK A01 T01530065  RH  056%=      5-min Rain = 0
KVP1 180441Z 17013KT 15/06 A2985 RMK A01 T01540064  RH  055%=      5-min Rain = 0
KVP1 180442Z 17014G19KT 15/06 A2984 RMK A01 T01540064  RH  055%=      5-min Rain = 0
KVP1 180443Z 17016G22KT 15/07 A2984 RMK A01 T01540065  RH  055%=      5-min Rain = 0
KVP1 180444Z 17015KT 16/06 A2984 RMK A01 T01550063  RH  054%=      5-min Rain = 0
KVP1 180445Z 17016G21KT 16/06 A2985 RMK A01 T01560063  RH  054%=      5-min Rain = 0
KVP1 180446Z 18015KT 16/06 A2984 RMK A01 T01560063  RH  054%=      5-min Rain = 0
KVP1 180447Z 17015KT 16/06 A2985 RMK A01 T01570064  RH  054%=      5-min Rain = 0
KVP1 180448Z 18017KT 16/06 A2985 RMK A01 T01560063  RH  054%=      5-min Rain = 0
KVP1 180449Z 17017KT 16/06 A2985 RMK A01 T01560063  RH  054%=      5-min Rain = 0
KVP1 180450Z 17014KT 16/06 A2985 RMK A01 T01570063  RH  054%=      5-min Rain = 0
KVP1 180451Z 18014KT 16/06 A2985 RMK A01 T01560063  RH  054%=      5-min Rain = 0
KVP1 180452Z 18015KT 16/06 A2985 RMK A01 T01560063  RH  054%=      5-min Rain = 0
KVP1 180453Z 18015KT 16/06 A2985 RMK A01 T01560063  RH  054%=      5-min Rain = 0
KVP1 180454Z 18017KT 16/06 A2985 RMK A01 T01560062  RH  054%=      5-min Rain = 0
KVP1 180455Z 18015KT 16/06 A2985 RMK A01 T01560062  RH  054%=      5-min Rain = 0
KVP1 180456Z 17015G21KT 16/06 A2985 RMK A01 T01560062  RH  054%=      5-min Rain = 0
KVP1 180457Z 18015KT 16/06 A2985 RMK A01 T01560062  RH  054%=      5-min Rain = 0
KVP1 180458Z 18015KT 16/06 A2985 RMK A01 T01550062  RH  054%=      5-min Rain = 0
KVP1 180459Z 17015KT 16/06 A2985 RMK A01 T01550062  RH  054%=      5-min Rain = 0

Page generated in 0.0912 seconds.